Observation data for Crane on 01/20/2019      Previous  Date  Next       Current Mesonet Observations  Soil Data  Daily Summary Page  Observations in Plain Language
KCR2 200600Z 09005KT 02/M04 A3031 RMK A01 T00161037  RH  068%=      5-min Rain = 0
KCR2 200601Z 09003KT 02/M04 A3031 RMK A01 T00151037  RH  068%=      5-min Rain = 0
KCR2 200602Z 08004KT 01/M04 A3031 RMK A01 T00141037  RH  069%=      5-min Rain = 0
KCR2 200603Z 08005KT 01/M04 A3031 RMK A01 T00141037  RH  069%=      5-min Rain = 0
KCR2 200604Z 09005KT 01/M04 A3031 RMK A01 T00131036  RH  070%=      5-min Rain = 0
KCR2 200605Z 10004KT 01/M04 A3031 RMK A01 T00131036  RH  070%=      5-min Rain = 0
KCR2 200606Z 09005KT 01/M04 A3031 RMK A01 T00131035  RH  070%=      5-min Rain = 0
KCR2 200607Z 08006KT 01/M04 A3031 RMK A01 T00131035  RH  070%=      5-min Rain = 0
KCR2 200608Z 10006KT 01/M04 A3031 RMK A01 T00131035  RH  070%=      5-min Rain = 0
KCR2 200609Z 10007KT 01/M04 A3031 RMK A01 T00121035  RH  071%=      5-min Rain = 0
KCR2 200610Z 11007KT 01/M04 A3031 RMK A01 T00121035  RH  071%=      5-min Rain = 0
KCR2 200611Z 16003KT 01/M04 A3031 RMK A01 T00121035  RH  071%=      5-min Rain = 0
KCR2 200612Z 13004KT 01/M04 A3031 RMK A01 T00111036  RH  071%=      5-min Rain = 0
KCR2 200613Z 12006KT 01/M04 A3031 RMK A01 T00131035  RH  071%=      5-min Rain = 0
KCR2 200614Z 12006KT 02/M03 A3031 RMK A01 T00151034  RH  069%=      5-min Rain = 0
KCR2 200615Z 11006KT 02/M03 A3031 RMK A01 T00181034  RH  068%=      5-min Rain = 0
KCR2 200616Z 12005KT 02/M04 A3031 RMK A01 T00191035  RH  068%=      5-min Rain = 0
KCR2 200617Z 13003KT 02/M04 A3031 RMK A01 T00181035  RH  068%=      5-min Rain = 0
KCR2 200618Z 12005KT 02/M04 A3031 RMK A01 T00181035  RH  068%=      5-min Rain = 0
KCR2 200619Z 11005KT 02/M03 A3031 RMK A01 T00211034  RH  067%=      5-min Rain = 0
KCR2 200620Z 11005KT 02/M04 A3031 RMK A01 T00211035  RH  067%=      5-min Rain = 0
KCR2 200621Z 11004KT 02/M04 A3031 RMK A01 T00211035  RH  066%=      5-min Rain = 0
KCR2 200622Z 11005KT 02/M04 A3032 RMK A01 T00191036  RH  067%=      5-min Rain = 0
KCR2 200623Z 11006KT 02/M04 A3032 RMK A01 T00181036  RH  067%=      5-min Rain = 0
KCR2 200624Z 09005KT 02/M04 A3032 RMK A01 T00171036  RH  068%=      5-min Rain = 0
KCR2 200625Z 10006KT 02/M04 A3032 RMK A01 T00151036  RH  068%=      5-min Rain = 0
KCR2 200626Z 10005KT 02/M04 A3032 RMK A01 T00151036  RH  069%=      5-min Rain = 0
KCR2 200627Z 10005KT 01/M04 A3032 RMK A01 T00141036  RH  069%=      5-min Rain = 0
KCR2 200628Z 09005KT 01/M04 A3032 RMK A01 T00131036  RH  070%=      5-min Rain = 0
KCR2 200629Z 08005KT 01/M04 A3032 RMK A01 T00121036  RH  070%=      5-min Rain = 0
KCR2 200630Z 09004KT 01/M04 A3032 RMK A01 T00111037  RH  071%=      5-min Rain = 0
KCR2 200631Z 08005KT 01/M04 A3032 RMK A01 T00101037  RH  071%=      5-min Rain = 0
KCR2 200632Z 08005KT 01/M04 A3032 RMK A01 T00091037  RH  072%=      5-min Rain = 0
KCR2 200633Z 09006KT 01/M04 A3032 RMK A01 T00091036  RH  072%=      5-min Rain = 0
KCR2 200634Z 09006KT 01/M04 A3032 RMK A01 T00101035  RH  072%=      5-min Rain = 0
KCR2 200635Z 10006KT 01/M04 A3032 RMK A01 T00091036  RH  072%=      5-min Rain = 0
KCR2 200636Z 10005KT 01/M04 A3031 RMK A01 T00091035  RH  072%=      5-min Rain = 0
KCR2 200637Z 10005KT 01/M04 A3031 RMK A01 T00091036  RH  072%=      5-min Rain = 0
KCR2 200638Z 10005KT 01/M04 A3031 RMK A01 T00101035  RH  072%=      5-min Rain = 0
KCR2 200639Z 10005KT 01/M04 A3031 RMK A01 T00091035  RH  072%=      5-min Rain = 0
KCR2 200640Z 11005KT 01/M04 A3031 RMK A01 T00091035  RH  072%=      5-min Rain = 0
KCR2 200641Z 11005KT 01/M04 A3031 RMK A01 T00091035  RH  072%=      5-min Rain = 0
KCR2 200642Z 11005KT 01/M04 A3031 RMK A01 T00081035  RH  072%=      5-min Rain = 0
KCR2 200643Z 12005KT 01/M04 A3031 RMK A01 T00081036  RH  072%=      5-min Rain = 0
KCR2 200644Z 12004KT 01/M04 A3031 RMK A01 T00081036  RH  072%=      5-min Rain = 0
KCR2 200645Z 12003KT 01/M04 A3031 RMK A01 T00081036  RH  073%=      5-min Rain = 0
KCR2 200646Z 12002KT 01/M04 A3031 RMK A01 T00081036  RH  073%=      5-min Rain = 0
KCR2 200647Z 12003KT 01/M04 A3031 RMK A01 T00071037  RH  073%=      5-min Rain = 0
KCR2 200648Z 13004KT 01/M04 A3031 RMK A01 T00071036  RH  073%=      5-min Rain = 0
KCR2 200649Z 13004KT 01/M04 A3031 RMK A01 T00071036  RH  073%=      5-min Rain = 0
KCR2 200650Z 14003KT 01/M04 A3031 RMK A01 T00071036  RH  073%=      5-min Rain = 0
KCR2 200651Z 14003KT 01/M04 A3031 RMK A01 T00081036  RH  073%=      5-min Rain = 0
KCR2 200652Z 13003KT 01/M04 A3031 RMK A01 T00081036  RH  072%=      5-min Rain = 0
KCR2 200653Z 14003KT 01/M04 A3031 RMK A01 T00091036  RH  072%=      5-min Rain = 0
KCR2 200654Z 15002KT 01/M04 A3031 RMK A01 T00081036  RH  072%=      5-min Rain = 0
KCR2 200655Z 14002KT 01/M04 A303 RMK A01 T00081037  RH  072%=      5-min Rain = 0
KCR2 200656Z 14002KT 01/M04 A303 RMK A01 T00081037  RH  072%=      5-min Rain = 0
KCR2 200657Z 14001KT 01/M04 A303 RMK A01 T00081037  RH  072%=      5-min Rain = 0
KCR2 200658Z 14002KT 01/M04 A303 RMK A01 T00071037  RH  072%=      5-min Rain = 0
KCR2 200659Z 16002KT 01/M04 A303 RMK A01 T00071037  RH  073%=      5-min Rain = 0
KCR2 200700Z 17002KT 01/M04 A303 RMK A01 T00071037  RH  073%=      5-min Rain = 0
KCR2 200701Z 18002KT 01/M04 A303 RMK A01 T00061037  RH  073%=      5-min Rain = 0
KCR2 200702Z 19002KT 01/M04 A303 RMK A01 T00061037  RH  073%=      5-min Rain = 0
KCR2 200703Z 18002KT 01/M04 A303 RMK A01 T00061037  RH  073%=      5-min Rain = 0
KCR2 200704Z 18002KT 01/M04 A303 RMK A01 T00061036  RH  073%=      5-min Rain = 0
KCR2 200705Z 17002KT 01/M04 A303 RMK A01 T00061037  RH  073%=      5-min Rain = 0
KCR2 200706Z 17002KT 01/M04 A303 RMK A01 T00061036  RH  073%=      5-min Rain = 0
KCR2 200707Z 18001KT 01/M04 A303 RMK A01 T00061036  RH  073%=      5-min Rain = 0
KCR2 200708Z 19002KT 01/M04 A303 RMK A01 T00061036  RH  074%=      5-min Rain = 0
KCR2 200709Z 20001KT 01/M04 A303 RMK A01 T00061036  RH  073%=      5-min Rain = 0
KCR2 200710Z 20001KT 01/M04 A303 RMK A01 T00071036  RH  073%=      5-min Rain = 0
KCR2 200711Z 17001KT 01/M04 A303 RMK A01 T00071036  RH  073%=      5-min Rain = 0
KCR2 200712Z 17001KT 01/M04 A303 RMK A01 T00081036  RH  072%=      5-min Rain = 0
KCR2 200713Z 19001KT 01/M04 A303 RMK A01 T00091036  RH  072%=      5-min Rain = 0
KCR2 200714Z 19000KT 01/M04 A303 RMK A01 T00101035  RH  072%=      5-min Rain = 0
KCR2 200715Z 14001KT 01/M04 A303 RMK A01 T00111035  RH  071%=      5-min Rain = 0
KCR2 200716Z 18002KT 01/M04 A303 RMK A01 T00121035  RH  071%=      5-min Rain = 0
KCR2 200717Z 12000KT 01/M04 A303 RMK A01 T00121035  RH  071%=      5-min Rain = 0
KCR2 200718Z 12001KT 01/M04 A303 RMK A01 T00121036  RH  070%=      5-min Rain = 0
KCR2 200719Z 00000KT 01/M04 A303 RMK A01 T00121036  RH  071%=      5-min Rain = 0
KCR2 200720Z 07000KT 01/M04 A303 RMK A01 T00111036  RH  071%=      5-min Rain = 0
KCR2 200721Z 09000KT 01/M04 A303 RMK A01 T00101037  RH  071%=      5-min Rain = 0
KCR2 200722Z 09001KT 01/M04 A303 RMK A01 T00091037  RH  071%=      5-min Rain = 0
KCR2 200723Z 09002KT 01/M04 A303 RMK A01 T00081037  RH  072%=      5-min Rain = 0
KCR2 200724Z 10002KT 01/M04 A303 RMK A01 T00071038  RH  072%=      5-min Rain = 0
KCR2 200725Z 10001KT 01/M04 A303 RMK A01 T00061037  RH  073%=      5-min Rain = 0
KCR2 200726Z 11002KT 01/M04 A3029 RMK A01 T00071036  RH  073%=      5-min Rain = 0
KCR2 200727Z 10002KT 01/M04 A3029 RMK A01 T00061036  RH  073%=      5-min Rain = 0
KCR2 200728Z 07001KT 01/M04 A3029 RMK A01 T00061036  RH  073%=      5-min Rain = 0
KCR2 200729Z 08003KT 01/M04 A3029 RMK A01 T00061036  RH  073%=      5-min Rain = 0
KCR2 200730Z 08004KT 01/M04 A3029 RMK A01 T00061036  RH  073%=      5-min Rain = 0
KCR2 200731Z 08004KT 01/M04 A3029 RMK A01 T00061036  RH  074%=      5-min Rain = 0
KCR2 200732Z 08003KT 01/M04 A3029 RMK A01 T00061036  RH  074%=      5-min Rain = 0
KCR2 200733Z 08003KT 01/M04 A3029 RMK A01 T00061036  RH  074%=      5-min Rain = 0
KCR2 200734Z 09003KT 01/M04 A3029 RMK A01 T00071035  RH  073%=      5-min Rain = 0
KCR2 200735Z 10003KT 01/M04 A3029 RMK A01 T00081035  RH  073%=      5-min Rain = 0
KCR2 200736Z 09002KT 01/M04 A3029 RMK A01 T00081035  RH  073%=      5-min Rain = 0
KCR2 200737Z 09002KT 01/M04 A3029 RMK A01 T00091035  RH  072%=      5-min Rain = 0
KCR2 200738Z 09003KT 01/M04 A3029 RMK A01 T00101035  RH  072%=      5-min Rain = 0
KCR2 200739Z 08002KT 01/M04 A3029 RMK A01 T00091035  RH  072%=      5-min Rain = 0
KCR2 200740Z 08003KT 01/M04 A3029 RMK A01 T00091035  RH  072%=      5-min Rain = 0
KCR2 200741Z 07004KT 01/M04 A3029 RMK A01 T00081035  RH  073%=      5-min Rain = 0
KCR2 200742Z 07004KT 01/M04 A3029 RMK A01 T00091035  RH  072%=      5-min Rain = 0
KCR2 200743Z 07005KT 01/M04 A3029 RMK A01 T00091035  RH  072%=      5-min Rain = 0
KCR2 200744Z 08005KT 01/M04 A3029 RMK A01 T00091036  RH  072%=      5-min Rain = 0
KCR2 200745Z 08004KT 01/M04 A3029 RMK A01 T00081035  RH  073%=      5-min Rain = 0
KCR2 200746Z 08004KT 01/M04 A3029 RMK A01 T00081035  RH  073%=      5-min Rain = 0
KCR2 200747Z 09005KT 01/M04 A3029 RMK A01 T00081035  RH  073%=      5-min Rain = 0
KCR2 200748Z 09004KT 01/M04 A3029 RMK A01 T00081035  RH  073%=      5-min Rain = 0
KCR2 200749Z 10005KT 01/M04 A303 RMK A01 T00081035  RH  073%=      5-min Rain = 0
KCR2 200750Z 08002KT 01/M04 A3029 RMK A01 T00071036  RH  073%=      5-min Rain = 0
KCR2 200751Z 10005KT 01/M04 A3029 RMK A01 T00071036  RH  073%=      5-min Rain = 0
KCR2 200752Z 08003KT 01/M04 A3029 RMK A01 T00061036  RH  073%=      5-min Rain = 0
KCR2 200753Z 10003KT 01/M04 A3029 RMK A01 T00061036  RH  074%=      5-min Rain = 0
KCR2 200754Z 10004KT 01/M04 A3029 RMK A01 T00051036  RH  074%=      5-min Rain = 0
KCR2 200755Z 09004KT 00/M04 A3029 RMK A01 T00041036  RH  074%=      5-min Rain = 0
KCR2 200756Z 08002KT 00/M04 A3029 RMK A01 T00041036  RH  074%=      5-min Rain = 0
KCR2 200757Z 08003KT 01/M04 A3029 RMK A01 T00051035  RH  074%=      5-min Rain = 0
KCR2 200758Z 09004KT 01/M04 A3029 RMK A01 T00051035  RH  074%=      5-min Rain = 0
KCR2 200759Z 08003KT 01/M04 A3029 RMK A01 T00061035  RH  074%=      5-min Rain = 0
KCR2 200800Z 08003KT 01/M04 A3029 RMK A01 T00061035  RH  074%=      5-min Rain = 0
KCR2 200801Z 08004KT 01/M04 A3029 RMK A01 T00071035  RH  074%=      5-min Rain = 0
KCR2 200802Z 07005KT 01/M04 A3029 RMK A01 T00071035  RH  073%=      5-min Rain = 0
KCR2 200803Z 07005KT 01/M04 A3029 RMK A01 T00071035  RH  073%=      5-min Rain = 0
KCR2 200804Z 08004KT 01/M04 A3029 RMK A01 T00071036  RH  073%=      5-min Rain = 0
KCR2 200805Z 06003KT 01/M04 A3029 RMK A01 T00071035  RH  074%=      5-min Rain = 0
KCR2 200806Z 07004KT 01/M04 A3029 RMK A01 T00061035  RH  074%=      5-min Rain = 0
KCR2 200807Z 07004KT 01/M04 A3029 RMK A01 T00061035  RH  074%=      5-min Rain = 0
KCR2 200808Z 07005KT 01/M04 A3029 RMK A01 T00051036  RH  074%=      5-min Rain = 0
KCR2 200809Z 08005KT 00/M04 A3029 RMK A01 T00041036  RH  075%=      5-min Rain = 0
KCR2 200810Z 08005KT 00/M04 A3029 RMK A01 T00041035  RH  075%=      5-min Rain = 0
KCR2 200811Z 09005KT 01/M04 A3029 RMK A01 T00051035  RH  074%=      5-min Rain = 0
KCR2 200812Z 09005KT 01/M04 A3029 RMK A01 T00051035  RH  074%=      5-min Rain = 0
KCR2 200813Z 08006KT 01/M04 A3029 RMK A01 T00051036  RH  074%=      5-min Rain = 0
KCR2 200814Z 09007KT 00/M04 A3029 RMK A01 T00041035  RH  075%=      5-min Rain = 0
KCR2 200815Z 09006KT 00/M04 A3029 RMK A01 T00041036  RH  075%=      5-min Rain = 0
KCR2 200816Z 09006KT 00/M04 A3029 RMK A01 T00031037  RH  075%=      5-min Rain = 0
KCR2 200817Z 08006KT 00/M04 A3029 RMK A01 T00011037  RH  075%=      5-min Rain = 0
KCR2 200818Z 08007KT 00/M04 A3029 RMK A01 T00011037  RH  076%=      5-min Rain = 0
KCR2 200819Z 09006KT 00/04 A3029 RMK A01 T00000-37  RH  076%=      5-min Rain = 0
KCR2 200820Z 09006KT 00/M04 A3029 RMK A01 T00011036  RH  076%=      5-min Rain = 0
KCR2 200821Z 09007KT 00/M04 A3029 RMK A01 T00021036  RH  076%=      5-min Rain = 0
KCR2 200822Z 09007KT 00/M04 A3029 RMK A01 T00021035  RH  076%=      5-min Rain = 0
KCR2 200823Z 09007KT 00/M04 A3029 RMK A01 T00031035  RH  076%=      5-min Rain = 0
KCR2 200824Z 09006KT 00/M04 A3029 RMK A01 T00031035  RH  076%=      5-min Rain = 0
KCR2 200825Z 09007KT 00/M04 A3029 RMK A01 T00031036  RH  076%=      5-min Rain = 0
KCR2 200826Z 09007KT 00/M04 A3029 RMK A01 T00031035  RH  075%=      5-min Rain = 0
KCR2 200827Z 10006KT 00/M04 A3029 RMK A01 T00031035  RH  075%=      5-min Rain = 0
KCR2 200828Z 10006KT 00/M04 A3029 RMK A01 T00031036  RH  075%=      5-min Rain = 0
KCR2 200829Z 11006KT 00/M04 A3029 RMK A01 T00031036  RH  075%=      5-min Rain = 0
KCR2 200830Z 11005KT 00/M04 A3029 RMK A01 T00041036  RH  075%=      5-min Rain = 0
KCR2 200831Z 10005KT 00/M04 A3029 RMK A01 T00031036  RH  075%=      5-min Rain = 0
KCR2 200832Z 09004KT 00/M04 A3029 RMK A01 T00031036  RH  075%=      5-min Rain = 0
KCR2 200833Z 11003KT 00/M04 A3029 RMK A01 T00031036  RH  075%=      5-min Rain = 0
KCR2 200834Z 10003KT 00/M04 A3029 RMK A01 T00031036  RH  075%=      5-min Rain = 0
KCR2 200835Z 09003KT 00/M04 A3029 RMK A01 T00031036  RH  075%=      5-min Rain = 0
KCR2 200836Z 10003KT 00/M04 A3029 RMK A01 T00031036  RH  075%=      5-min Rain = 0
KCR2 200837Z 10003KT 00/M04 A3029 RMK A01 T00031036  RH  075%=      5-min Rain = 0
KCR2 200838Z 10003KT 00/M04 A3029 RMK A01 T00031036  RH  075%=      5-min Rain = 0
KCR2 200839Z 11003KT 00/M04 A3029 RMK A01 T00031036  RH  075%=      5-min Rain = 0
KCR2 200840Z 10003KT 00/M04 A3029 RMK A01 T00021037  RH  075%=      5-min Rain = 0
KCR2 200841Z 10004KT 00/M04 A3029 RMK A01 T00021037  RH  075%=      5-min Rain = 0
KCR2 200842Z 10004KT 00/M04 A3029 RMK A01 T00031036  RH  075%=      5-min Rain = 0
KCR2 200843Z 11004KT 00/M04 A3029 RMK A01 T00041036  RH  075%=      5-min Rain = 0
KCR2 200844Z 10004KT 00/M04 A3029 RMK A01 T00041037  RH  074%=      5-min Rain = 0
KCR2 200845Z 10005KT 00/M04 A3029 RMK A01 T00041036  RH  074%=      5-min Rain = 0
KCR2 200846Z 11004KT 00/M04 A3029 RMK A01 T00041037  RH  074%=      5-min Rain = 0
KCR2 200847Z 11004KT 00/M04 A3029 RMK A01 T00041037  RH  074%=      5-min Rain = 0
KCR2 200848Z 10005KT 00/M04 A3028 RMK A01 T00041037  RH  074%=      5-min Rain = 0
KCR2 200849Z 10006KT 00/M04 A3028 RMK A01 T00041036  RH  074%=      5-min Rain = 0
KCR2 200850Z 09006KT 00/M04 A3028 RMK A01 T00041037  RH  074%=      5-min Rain = 0
KCR2 200851Z 09007KT 00/M04 A3028 RMK A01 T00031037  RH  075%=      5-min Rain = 0
KCR2 200852Z 09007KT 00/M04 A3028 RMK A01 T00011037  RH  075%=      5-min Rain = 0
KCR2 200853Z 09007KT 00/M04 A3028 RMK A01 T00011036  RH  076%=      5-min Rain = 0
KCR2 200854Z 10007KT 00/M04 A3028 RMK A01 T00011036  RH  076%=      5-min Rain = 0
KCR2 200855Z 10007KT 00/M04 A3028 RMK A01 T00011036  RH  076%=      5-min Rain = 0
KCR2 200856Z 10007KT 00/M04 A3028 RMK A01 T00011036  RH  076%=      5-min Rain = 0
KCR2 200857Z 10007KT 00/M04 A3029 RMK A01 T00021035  RH  076%=      5-min Rain = 0
KCR2 200858Z 10007KT 00/M04 A3029 RMK A01 T00031035  RH  076%=      5-min Rain = 0
KCR2 200859Z 10006KT 00/M04 A3029 RMK A01 T00041035  RH  075%=      5-min Rain = 0
KCR2 200900Z 09007KT 01/M03 A3029 RMK A01 T00051034  RH  075%=      5-min Rain = 0
KCR2 200901Z 09007KT 01/M03 A3029 RMK A01 T00061034  RH  075%=      5-min Rain = 0
KCR2 200902Z 09007KT 01/M03 A3028 RMK A01 T00061034  RH  074%=      5-min Rain = 0
KCR2 200903Z 09006KT 01/M03 A3028 RMK A01 T00061034  RH  075%=      5-min Rain = 0
KCR2 200904Z 09006KT 01/M03 A3028 RMK A01 T00061034  RH  075%=      5-min Rain = 0
KCR2 200905Z 09006KT 01/M03 A3028 RMK A01 T00061034  RH  075%=      5-min Rain = 0
KCR2 200906Z 09005KT 01/M03 A3028 RMK A01 T00061034  RH  074%=      5-min Rain = 0
KCR2 200907Z 09005KT 01/M03 A3028 RMK A01 T00071034  RH  074%=      5-min Rain = 0
KCR2 200908Z 09005KT 01/M03 A3028 RMK A01 T00071034  RH  074%=      5-min Rain = 0
KCR2 200909Z 10005KT 01/M03 A3028 RMK A01 T00071034  RH  074%=      5-min Rain = 0
KCR2 200910Z 09006KT 01/M04 A3028 RMK A01 T00071035  RH  074%=      5-min Rain = 0
KCR2 200911Z 09006KT 01/M04 A3028 RMK A01 T00071035  RH  074%=      5-min Rain = 0
KCR2 200912Z 09006KT 01/M04 A3028 RMK A01 T00071035  RH  074%=      5-min Rain = 0
KCR2 200913Z 09006KT 01/M04 A3028 RMK A01 T00071035  RH  074%=      5-min Rain = 0
KCR2 200914Z 09006KT 01/M04 A3028 RMK A01 T00061035  RH  074%=      5-min Rain = 0
KCR2 200915Z 09007KT 01/M04 A3028 RMK A01 T00061035  RH  074%=      5-min Rain = 0
KCR2 200916Z 09007KT 01/M04 A3028 RMK A01 T00061035  RH  074%=      5-min Rain = 0
KCR2 200917Z 09007KT 01/M03 A3028 RMK A01 T00061034  RH  074%=      5-min Rain = 0
KCR2 200918Z 09007KT 01/M03 A3028 RMK A01 T00061034  RH  074%=      5-min Rain = 0
KCR2 200919Z 09007KT 01/M04 A3028 RMK A01 T00061035  RH  074%=      5-min Rain = 0
KCR2 200920Z 09007KT 01/M03 A3028 RMK A01 T00061034  RH  074%=      5-min Rain = 0
KCR2 200921Z 09007KT 01/M03 A3028 RMK A01 T00071034  RH  074%=      5-min Rain = 0
KCR2 200922Z 09007KT 01/M03 A3028 RMK A01 T00071034  RH  074%=      5-min Rain = 0
KCR2 200923Z 09006KT 01/M03 A3028 RMK A01 T00071034  RH  074%=      5-min Rain = 0
KCR2 200924Z 09006KT 01/M03 A3028 RMK A01 T00071034  RH  074%=      5-min Rain = 0
KCR2 200925Z 09006KT 01/M03 A3028 RMK A01 T00081034  RH  074%=      5-min Rain = 0
KCR2 200926Z 09006KT 01/M03 A3028 RMK A01 T00081034  RH  073%=      5-min Rain = 0
KCR2 200927Z 09006KT 01/M03 A3028 RMK A01 T00081034  RH  073%=      5-min Rain = 0
KCR2 200928Z 09006KT 01/M03 A3028 RMK A01 T00091033  RH  073%=      5-min Rain = 0
KCR2 200929Z 09006KT 01/M03 A3028 RMK A01 T00091033  RH  074%=      5-min Rain = 0
KCR2 200930Z 09006KT 01/M03 A3028 RMK A01 T00081034  RH  073%=      5-min Rain = 0
KCR2 200931Z 09006KT 01/M03 A3028 RMK A01 T00081034  RH  073%=      5-min Rain = 0
KCR2 200932Z 10005KT 01/M03 A3028 RMK A01 T00081034  RH  073%=      5-min Rain = 0
KCR2 200933Z 10005KT 01/M03 A3028 RMK A01 T00081034  RH  073%=      5-min Rain = 0
KCR2 200934Z 09005KT 01/M03 A3028 RMK A01 T00091033  RH  073%=      5-min Rain = 0
KCR2 200935Z 09005KT 01/M03 A3028 RMK A01 T00081034  RH  073%=      5-min Rain = 0
KCR2 200936Z 08005KT 01/M03 A3028 RMK A01 T00081034  RH  074%=      5-min Rain = 0
KCR2 200937Z 08004KT 01/M03 A3028 RMK A01 T00071034  RH  074%=      5-min Rain = 0
KCR2 200938Z 08004KT 01/M03 A3028 RMK A01 T00071034  RH  074%=      5-min Rain = 0
KCR2 200939Z 08004KT 01/M03 A3028 RMK A01 T00071034  RH  074%=      5-min Rain = 0
KCR2 200940Z 08004KT 01/M03 A3028 RMK A01 T00071033  RH  074%=      5-min Rain = 0
KCR2 200941Z 08004KT 01/M03 A3028 RMK A01 T00071034  RH  074%=      5-min Rain = 0
KCR2 200942Z 08004KT 01/M03 A3028 RMK A01 T00081033  RH  074%=      5-min Rain = 0
KCR2 200943Z 09004KT 01/M03 A3028 RMK A01 T00081033  RH  074%=      5-min Rain = 0
KCR2 200944Z 09004KT 01/M03 A3028 RMK A01 T00081033  RH  074%=      5-min Rain = 0
KCR2 200945Z 09004KT 01/M03 A3028 RMK A01 T00081034  RH  074%=      5-min Rain = 0
KCR2 200946Z 09004KT 01/M03 A3028 RMK A01 T00081034  RH  074%=      5-min Rain = 0
KCR2 200947Z 09004KT 01/M03 A3028 RMK A01 T00081034  RH  074%=      5-min Rain = 0
KCR2 200948Z 09004KT 01/M03 A3028 RMK A01 T00081033  RH  074%=      5-min Rain = 0
KCR2 200949Z 09004KT 01/M03 A3028 RMK A01 T00081033  RH  074%=      5-min Rain = 0
KCR2 200950Z 09004KT 01/M03 A3028 RMK A01 T00081034  RH  074%=      5-min Rain = 0
KCR2 200951Z 08004KT 01/M03 A3028 RMK A01 T00071034  RH  074%=      5-min Rain = 0
KCR2 200952Z 08004KT 01/M03 A3028 RMK A01 T00071034  RH  074%=      5-min Rain = 0
KCR2 200953Z 08004KT 01/M03 A3028 RMK A01 T00071034  RH  074%=      5-min Rain = 0
KCR2 200954Z 08003KT 01/M03 A3028 RMK A01 T00061034  RH  074%=      5-min Rain = 0
KCR2 200955Z 08003KT 01/M03 A3028 RMK A01 T00061034  RH  075%=      5-min Rain = 0
KCR2 200956Z 08003KT 01/M03 A3028 RMK A01 T00051034  RH  075%=      5-min Rain = 0
KCR2 200957Z 07003KT 00/M03 A3028 RMK A01 T00041034  RH  075%=      5-min Rain = 0
KCR2 200958Z 07003KT 00/M03 A3028 RMK A01 T00041034  RH  076%=      5-min Rain = 0
KCR2 200959Z 07003KT 00/M03 A3028 RMK A01 T00031034  RH  076%=      5-min Rain = 0
KCR2 201000Z 08003KT 00/M03 A3028 RMK A01 T00041034  RH  076%=      5-min Rain = 0
KCR2 201001Z 08003KT 01/M03 A3028 RMK A01 T00051033  RH  076%=      5-min Rain = 0
KCR2 201002Z 08003KT 01/M03 A3028 RMK A01 T00051033  RH  076%=      5-min Rain = 0
KCR2 201003Z 09003KT 01/M03 A3028 RMK A01 T00051033  RH  075%=      5-min Rain = 0
KCR2 201004Z 09003KT 01/M03 A3028 RMK A01 T00061033  RH  075%=      5-min Rain = 0
KCR2 201005Z 10003KT 01/M03 A3028 RMK A01 T00061033  RH  075%=      5-min Rain = 0
KCR2 201006Z 10003KT 01/M03 A3028 RMK A01 T00061034  RH  075%=      5-min Rain = 0
KCR2 201007Z 10003KT 01/M03 A3028 RMK A01 T00061034  RH  075%=      5-min Rain = 0
KCR2 201008Z 10003KT 01/M03 A3028 RMK A01 T00061034  RH  075%=      5-min Rain = 0
KCR2 201009Z 10002KT 01/M03 A3028 RMK A01 T00061034  RH  075%=      5-min Rain = 0
KCR2 201010Z 09002KT 01/M03 A3028 RMK A01 T00061034  RH  075%=      5-min Rain = 0
KCR2 201011Z 09002KT 01/M03 A3028 RMK A01 T00061034  RH  075%=      5-min Rain = 0
KCR2 201012Z 09002KT 01/M03 A3028 RMK A01 T00061034  RH  075%=      5-min Rain = 0
KCR2 201013Z 08003KT 01/M03 A3028 RMK A01 T00051034  RH  075%=      5-min Rain = 0
KCR2 201014Z 08002KT 01/M03 A3028 RMK A01 T00061034  RH  075%=      5-min Rain = 0
KCR2 201015Z 08003KT 01/M04 A3028 RMK A01 T00051035  RH  075%=      5-min Rain = 0
KCR2 201016Z 08003KT 01/M03 A3028 RMK A01 T00061034  RH  074%=      5-min Rain = 0
KCR2 201017Z 08003KT 01/M03 A3028 RMK A01 T00061034  RH  074%=      5-min Rain = 0
KCR2 201018Z 09003KT 01/M03 A3028 RMK A01 T00071034  RH  074%=      5-min Rain = 0
KCR2 201019Z 09004KT 01/M03 A3028 RMK A01 T00071034  RH  074%=      5-min Rain = 0
KCR2 201020Z 09004KT 01/M03 A3028 RMK A01 T00071034  RH  074%=      5-min Rain = 0
KCR2 201021Z 10005KT 01/M03 A3028 RMK A01 T00071034  RH  074%=      5-min Rain = 0
KCR2 201022Z 10005KT 01/M03 A3028 RMK A01 T00071033  RH  074%=      5-min Rain = 0
KCR2 201023Z 10005KT 01/M03 A3028 RMK A01 T00071033  RH  074%=      5-min Rain = 0
KCR2 201024Z 10005KT 01/M03 A3028 RMK A01 T00071033  RH  074%=      5-min Rain = 0
KCR2 201025Z 10005KT 01/M03 A3028 RMK A01 T00071033  RH  075%=      5-min Rain = 0
KCR2 201026Z 11005KT 01/M03 A3028 RMK A01 T00071033  RH  075%=      5-min Rain = 0
KCR2 201027Z 11005KT 01/M03 A3028 RMK A01 T00071032  RH  075%=      5-min Rain = 0
KCR2 201028Z 11005KT 01/M03 A3027 RMK A01 T00071033  RH  075%=      5-min Rain = 0
KCR2 201029Z 11005KT 01/M03 A3027 RMK A01 T00071033  RH  075%=      5-min Rain = 0
KCR2 201030Z 12005KT 01/M03 A3027 RMK A01 T00071033  RH  075%=      5-min Rain = 0
KCR2 201031Z 12004KT 01/M03 A3027 RMK A01 T00071033  RH  075%=      5-min Rain = 0
KCR2 201032Z 11005KT 01/M03 A3027 RMK A01 T00061033  RH  075%=      5-min Rain = 0
KCR2 201033Z 11005KT 01/M03 A3027 RMK A01 T00061032  RH  075%=      5-min Rain = 0
KCR2 201034Z 11005KT 01/M03 A3027 RMK A01 T00061032  RH  075%=      5-min Rain = 0
KCR2 201035Z 11005KT 01/M03 A3027 RMK A01 T00061032  RH  075%=      5-min Rain = 0
KCR2 201036Z 11004KT 01/M03 A3027 RMK A01 T00061032  RH  076%=      5-min Rain = 0
KCR2 201037Z 10004KT 01/M03 A3027 RMK A01 T00061032  RH  076%=      5-min Rain = 0
KCR2 201038Z 10004KT 01/M03 A3027 RMK A01 T00061032  RH  076%=      5-min Rain = 0
KCR2 201039Z 10005KT 01/M03 A3027 RMK A01 T00061031  RH  076%=      5-min Rain = 0
KCR2 201040Z 09004KT 01/M03 A3027 RMK A01 T00061031  RH  076%=      5-min Rain = 0
KCR2 201041Z 09005KT 01/M03 A3027 RMK A01 T00061031  RH  076%=      5-min Rain = 0
KCR2 201042Z 09005KT 01/M03 A3027 RMK A01 T00061032  RH  076%=      5-min Rain = 0
KCR2 201043Z 09005KT 01/M03 A3027 RMK A01 T00071031  RH  076%=      5-min Rain = 0
KCR2 201044Z 09005KT 01/M03 A3027 RMK A01 T00071031  RH  076%=      5-min Rain = 0
KCR2 201045Z 09005KT 01/M03 A3027 RMK A01 T00071031  RH  076%=      5-min Rain = 0
KCR2 201046Z 09005KT 01/M03 A3027 RMK A01 T00081031  RH  075%=      5-min Rain = 0
KCR2 201047Z 09005KT 01/M03 A3027 RMK A01 T00081031  RH  075%=      5-min Rain = 0
KCR2 201048Z 09005KT 01/M03 A3027 RMK A01 T00091031  RH  075%=      5-min Rain = 0
KCR2 201049Z 09005KT 01/M03 A3027 RMK A01 T00101031  RH  074%=      5-min Rain = 0
KCR2 201050Z 09005KT 01/M03 A3027 RMK A01 T00101031  RH  074%=      5-min Rain = 0
KCR2 201051Z 10005KT 01/M03 A3027 RMK A01 T00111031  RH  074%=      5-min Rain = 0
KCR2 201052Z 10005KT 01/M03 A3027 RMK A01 T00111031  RH  074%=      5-min Rain = 0
KCR2 201053Z 09005KT 01/M03 A3027 RMK A01 T00111031  RH  074%=      5-min Rain = 0
KCR2 201054Z 09006KT 01/M03 A3027 RMK A01 T00111031  RH  074%=      5-min Rain = 0
KCR2 201055Z 09006KT 01/M03 A3027 RMK A01 T00111031  RH  074%=      5-min Rain = 0
KCR2 201056Z 09006KT 01/M03 A3027 RMK A01 T00101031  RH  074%=      5-min Rain = 0
KCR2 201057Z 08006KT 01/M03 A3027 RMK A01 T00091031  RH  074%=      5-min Rain = 0
KCR2 201058Z 09006KT 01/M03 A3027 RMK A01 T00091031  RH  074%=      5-min Rain = 0
KCR2 201059Z 09006KT 01/M03 A3027 RMK A01 T00091031  RH  075%=      5-min Rain = 0
KCR2 201100Z 09006KT 01/M03 A3027 RMK A01 T00091031  RH  075%=      5-min Rain = 0
KCR2 201101Z 10006KT 01/M03 A3027 RMK A01 T00091031  RH  075%=      5-min Rain = 0
KCR2 201102Z 10006KT 01/M03 A3027 RMK A01 T00101031  RH  074%=      5-min Rain = 0
KCR2 201103Z 10006KT 01/M03 A3027 RMK A01 T00101031  RH  074%=      5-min Rain = 0
KCR2 201104Z 10006KT 01/M03 A3027 RMK A01 T00101031  RH  074%=      5-min Rain = 0
KCR2 201105Z 10006KT 01/M03 A3027 RMK A01 T00091031  RH  074%=      5-min Rain = 0
KCR2 201106Z 09006KT 01/M03 A3027 RMK A01 T00091031  RH  074%=      5-min Rain = 0
KCR2 201107Z 09006KT 01/M03 A3027 RMK A01 T00091031  RH  075%=      5-min Rain = 0
KCR2 201108Z 09005KT 01/M03 A3027 RMK A01 T00091031  RH  075%=      5-min Rain = 0
KCR2 201109Z 09005KT 01/M03 A3027 RMK A01 T00091031  RH  075%=      5-min Rain = 0
KCR2 201110Z 09005KT 01/M03 A3027 RMK A01 T00091031  RH  074%=      5-min Rain = 0
KCR2 201111Z 09005KT 01/M03 A3027 RMK A01 T00091031  RH  074%=      5-min Rain = 0
KCR2 201112Z 09006KT 01/M03 A3027 RMK A01 T00091031  RH  075%=      5-min Rain = 0
KCR2 201113Z 09006KT 01/M03 A3027 RMK A01 T00081031  RH  075%=      5-min Rain = 0
KCR2 201114Z 09007KT 01/M03 A3027 RMK A01 T00081031  RH  075%=      5-min Rain = 0
KCR2 201115Z 09007KT 01/M03 A3027 RMK A01 T00081031  RH  075%=      5-min Rain = 0
KCR2 201116Z 09007KT 01/M03 A3027 RMK A01 T00081031  RH  075%=      5-min Rain = 0
KCR2 201117Z 09007KT 01/M03 A3027 RMK A01 T00081031  RH  075%=      5-min Rain = 0
KCR2 201118Z 10008KT 01/M03 A3027 RMK A01 T00091031  RH  075%=      5-min Rain = 0
KCR2 201119Z 10007KT 01/M03 A3027 RMK A01 T00091031  RH  074%=      5-min Rain = 0
KCR2 201120Z 10007KT 01/M03 A3027 RMK A01 T00101031  RH  074%=      5-min Rain = 0
KCR2 201121Z 10007KT 01/M03 A3027 RMK A01 T00101031  RH  074%=      5-min Rain = 0
KCR2 201122Z 10007KT 01/M03 A3027 RMK A01 T00111031  RH  074%=      5-min Rain = 0
KCR2 201123Z 10008KT 01/M03 A3027 RMK A01 T00111031  RH  074%=      5-min Rain = 0
KCR2 201124Z 09008KT 01/M03 A3027 RMK A01 T00111031  RH  074%=      5-min Rain = 0
KCR2 201125Z 09008KT 01/M03 A3027 RMK A01 T00111031  RH  074%=      5-min Rain = 0
KCR2 201126Z 08007KT 01/M03 A3027 RMK A01 T00101031  RH  074%=      5-min Rain = 0
KCR2 201127Z 08007KT 01/M03 A3027 RMK A01 T00101031  RH  074%=      5-min Rain = 0
KCR2 201128Z 08007KT 01/M03 A3027 RMK A01 T00101031  RH  074%=      5-min Rain = 0
KCR2 201129Z 09007KT 01/M03 A3027 RMK A01 T00091031  RH  074%=      5-min Rain = 0
KCR2 201130Z 09007KT 01/M03 A3027 RMK A01 T00091031  RH  075%=      5-min Rain = 0
KCR2 201131Z 10007KT 01/M03 A3027 RMK A01 T00091031  RH  075%=      5-min Rain = 0
KCR2 201132Z 10007KT 01/M03 A3027 RMK A01 T00091031  RH  075%=      5-min Rain = 0
KCR2 201133Z 11008KT 01/M03 A3027 RMK A01 T00091031  RH  075%=      5-min Rain = 0
KCR2 201134Z 10007KT 01/M03 A3027 RMK A01 T00091031  RH  074%=      5-min Rain = 0
KCR2 201135Z 10007KT 01/M03 A3027 RMK A01 T00091031  RH  074%=      5-min Rain = 0
KCR2 201136Z 10007KT 01/M03 A3027 RMK A01 T00091031  RH  074%=      5-min Rain = 0
KCR2 201137Z 09007KT 01/M03 A3027 RMK A01 T00091031  RH  074%=      5-min Rain = 0
KCR2 201138Z 09007KT 01/M03 A3027 RMK A01 T00091032  RH  074%=      5-min Rain = 0
KCR2 201139Z 09007KT 01/M03 A3027 RMK A01 T00081032  RH  075%=      5-min Rain = 0
KCR2 201140Z 09007KT 01/M03 A3027 RMK A01 T00081031  RH  075%=      5-min Rain = 0
KCR2 201141Z 10007KT 01/M03 A3027 RMK A01 T00081031  RH  075%=      5-min Rain = 0
KCR2 201142Z 11007KT 01/M03 A3027 RMK A01 T00081031  RH  075%=      5-min Rain = 0
KCR2 201143Z 11007KT 01/M03 A3027 RMK A01 T00071031  RH  075%=      5-min Rain = 0
KCR2 201144Z 11007KT 01/M03 A3026 RMK A01 T00071031  RH  075%=      5-min Rain = 0
KCR2 201145Z 11007KT 01/M03 A3026 RMK A01 T00071031  RH  075%=      5-min Rain = 0
KCR2 201146Z 11007KT 01/M03 A3026 RMK A01 T00081032  RH  075%=      5-min Rain = 0
KCR2 201147Z 11007KT 01/M03 A3026 RMK A01 T00081032  RH  075%=      5-min Rain = 0
KCR2 201148Z 10007KT 01/M03 A3026 RMK A01 T00071032  RH  075%=      5-min Rain = 0
KCR2 201149Z 10007KT 01/M03 A3026 RMK A01 T00071032  RH  075%=      5-min Rain = 0
KCR2 201150Z 09006KT 01/M03 A3026 RMK A01 T00061032  RH  076%=      5-min Rain = 0
KCR2 201151Z 10007KT 01/M03 A3026 RMK A01 T00051032  RH  076%=      5-min Rain = 0
KCR2 201152Z 10007KT 00/M03 A3026 RMK A01 T00041033  RH  076%=      5-min Rain = 0
KCR2 201153Z 11008KT 00/M03 A3026 RMK A01 T00041032  RH  077%=      5-min Rain = 0
KCR2 201154Z 12008KT 00/M03 A3026 RMK A01 T00041032  RH  077%=      5-min Rain = 0
KCR2 201155Z 12008KT 01/M03 A3026 RMK A01 T00051032  RH  076%=      5-min Rain = 0
KCR2 201156Z 12007KT 01/M03 A3026 RMK A01 T00071031  RH  075%=      5-min Rain = 0
KCR2 201157Z 13008KT 01/M03 A3026 RMK A01 T00081032  RH  075%=      5-min Rain = 0
KCR2 201158Z 13007KT 01/M03 A3026 RMK A01 T00091032  RH  074%=      5-min Rain = 0
KCR2 201159Z 12007KT 01/M03 A3026 RMK A01 T00101032  RH  074%=      5-min Rain = 0
KCR2 201200Z 12006KT 01/M03 A3027 RMK A01 T00101032  RH  074%=      5-min Rain = 0
KCR2 201201Z 11007KT 01/M03 A3027 RMK A01 T00111032  RH  073%=      5-min Rain = 0
KCR2 201202Z 10006KT 01/M03 A3027 RMK A01 T00111032  RH  073%=      5-min Rain = 0
KCR2 201203Z 09006KT 01/M03 A3027 RMK A01 T00111031  RH  073%=      5-min Rain = 0
KCR2 201204Z 08006KT 01/M03 A3027 RMK A01 T00111031  RH  074%=      5-min Rain = 0
KCR2 201205Z 08007KT 01/M03 A3027 RMK A01 T00101032  RH  074%=      5-min Rain = 0
KCR2 201206Z 09008KT 01/M03 A3027 RMK A01 T00081032  RH  075%=      5-min Rain = 0
KCR2 201207Z 10008KT 01/M03 A3027 RMK A01 T00061032  RH  075%=      5-min Rain = 0
KCR2 201208Z 11009KT 01/M03 A3027 RMK A01 T00061032  RH  076%=      5-min Rain = 0
KCR2 201209Z 11009KT 01/M03 A3027 RMK A01 T00061032  RH  076%=      5-min Rain = 0
KCR2 201210Z 11009KT 01/M03 A3027 RMK A01 T00071031  RH  075%=      5-min Rain = 0
KCR2 201211Z 11009KT 01/M03 A3027 RMK A01 T00101031  RH  074%=      5-min Rain = 0
KCR2 201212Z 11008KT 01/M03 A3027 RMK A01 T00111031  RH  073%=      5-min Rain = 0
KCR2 201213Z 11008KT 01/M03 A3027 RMK A01 T00121031  RH  073%=      5-min Rain = 0
KCR2 201214Z 10008KT 01/M03 A3027 RMK A01 T00121032  RH  073%=      5-min Rain = 0
KCR2 201215Z 10007KT 01/M03 A3027 RMK A01 T00121032  RH  073%=      5-min Rain = 0
KCR2 201216Z 09006KT 01/M03 A3026 RMK A01 T00111032  RH  073%=      5-min Rain = 0
KCR2 201217Z 09007KT 01/M03 A3026 RMK A01 T00091033  RH  074%=      5-min Rain = 0
KCR2 201218Z 10007KT 01/M03 A3026 RMK A01 T00081032  RH  074%=      5-min Rain = 0
KCR2 201219Z 11008KT 01/M03 A3026 RMK A01 T00081032  RH  075%=      5-min Rain = 0
KCR2 201220Z 11008KT 01/M03 A3026 RMK A01 T00081032  RH  075%=      5-min Rain = 0
KCR2 201221Z 11008KT 01/M03 A3026 RMK A01 T00071032  RH  075%=      5-min Rain = 0
KCR2 201222Z 11008KT 01/M03 A3026 RMK A01 T00081032  RH  075%=      5-min Rain = 0
KCR2 201223Z 11008KT 01/M03 A3026 RMK A01 T00081031  RH  075%=      5-min Rain = 0
KCR2 201224Z 11008KT 01/M03 A3026 RMK A01 T00101031  RH  074%=      5-min Rain = 0
KCR2 201225Z 11008KT 01/M03 A3026 RMK A01 T00121030  RH  074%=      5-min Rain = 0
KCR2 201226Z 10007KT 01/M03 A3026 RMK A01 T00131030  RH  073%=      5-min Rain = 0
KCR2 201227Z 09006KT 01/M03 A3026 RMK A01 T00131031  RH  073%=      5-min Rain = 0
KCR2 201228Z 09006KT 01/M03 A3026 RMK A01 T00111032  RH  073%=      5-min Rain = 0
KCR2 201229Z 09006KT 01/M03 A3026 RMK A01 T00091032  RH  074%=      5-min Rain = 0
KCR2 201230Z 10006KT 01/M03 A3026 RMK A01 T00081032  RH  074%=      5-min Rain = 0
KCR2 201231Z 10007KT 01/M03 A3026 RMK A01 T00071032  RH  075%=      5-min Rain = 0
KCR2 201232Z 11008KT 01/M03 A3026 RMK A01 T00071032  RH  075%=      5-min Rain = 0
KCR2 201233Z 11008KT 01/M03 A3026 RMK A01 T00071032  RH  075%=      5-min Rain = 0
KCR2 201234Z 11008KT 01/M03 A3027 RMK A01 T00071032  RH  075%=      5-min Rain = 0
KCR2 201235Z 11008KT 01/M03 A3027 RMK A01 T00091031  RH  075%=      5-min Rain = 0
KCR2 201236Z 11008KT 01/M03 A3027 RMK A01 T00111029  RH  074%=      5-min Rain = 0
KCR2 201237Z 10007KT 01/M03 A3027 RMK A01 T00131029  RH  073%=      5-min Rain = 0
KCR2 201238Z 10006KT 01/M03 A3027 RMK A01 T00131030  RH  073%=      5-min Rain = 0
KCR2 201239Z 10006KT 01/M03 A3027 RMK A01 T00121030  RH  073%=      5-min Rain = 0
KCR2 201240Z 10007KT 01/M03 A3026 RMK A01 T00111030  RH  074%=      5-min Rain = 0
KCR2 201241Z 11007KT 01/M03 A3026 RMK A01 T00101030  RH  074%=      5-min Rain = 0
KCR2 201242Z 11008KT 01/M03 A3026 RMK A01 T00101030  RH  075%=      5-min Rain = 0
KCR2 201243Z 12008KT 01/M03 A3026 RMK A01 T00111030  RH  074%=      5-min Rain = 0
KCR2 201244Z 12008KT 01/M03 A3026 RMK A01 T00121029  RH  074%=      5-min Rain = 0
KCR2 201245Z 12008KT 01/M03 A3026 RMK A01 T00131029  RH  074%=      5-min Rain = 0
KCR2 201246Z 12008KT 01/M03 A3026 RMK A01 T00141029  RH  073%=      5-min Rain = 0
KCR2 201247Z 11007KT 02/M03 A3026 RMK A01 T00151028  RH  073%=      5-min Rain = 0
KCR2 201248Z 11007KT 02/M03 A3027 RMK A01 T00161029  RH  072%=      5-min Rain = 0
KCR2 201249Z 10007KT 02/M03 A3027 RMK A01 T00161029  RH  072%=      5-min Rain = 0
KCR2 201250Z 10006KT 02/M03 A3027 RMK A01 T00151029  RH  072%=      5-min Rain = 0
KCR2 201251Z 10006KT 02/M03 A3027 RMK A01 T00151029  RH  073%=      5-min Rain = 0
KCR2 201252Z 10006KT 01/M03 A3027 RMK A01 T00131029  RH  074%=      5-min Rain = 0
KCR2 201253Z 10006KT 01/M03 A3027 RMK A01 T00121029  RH  074%=      5-min Rain = 0
KCR2 201254Z 11006KT 01/M03 A3027 RMK A01 T00111029  RH  074%=      5-min Rain = 0
KCR2 201255Z 12007KT 01/M03 A3027 RMK A01 T00111029  RH  075%=      5-min Rain = 0
KCR2 201256Z 12007KT 01/M03 A3027 RMK A01 T00121028  RH  074%=      5-min Rain = 0
KCR2 201257Z 12008KT 01/M03 A3027 RMK A01 T00141028  RH  074%=      5-min Rain = 0
KCR2 201258Z 12008KT 02/M03 A3027 RMK A01 T00151028  RH  073%=      5-min Rain = 0
KCR2 201259Z 12008KT 02/M03 A3027 RMK A01 T00171027  RH  072%=      5-min Rain = 0
KCR2 201300Z 12007KT 02/M03 A3027 RMK A01 T00181028  RH  072%=      5-min Rain = 0
KCR2 201301Z 11007KT 02/M03 A3027 RMK A01 T00181028  RH  072%=      5-min Rain = 0
KCR2 201302Z 10007KT 02/M03 A3027 RMK A01 T00181028  RH  072%=      5-min Rain = 0
KCR2 201303Z 10006KT 02/M03 A3027 RMK A01 T00171028  RH  072%=      5-min Rain = 0
KCR2 201304Z 09006KT 02/M03 A3027 RMK A01 T00161028  RH  073%=      5-min Rain = 0
KCR2 201305Z 09006KT 01/M03 A3027 RMK A01 T00141028  RH  073%=      5-min Rain = 0
KCR2 201306Z 10007KT 01/M03 A3027 RMK A01 T00141028  RH  074%=      5-min Rain = 0
KCR2 201307Z 11007KT 01/M03 A3027 RMK A01 T00141028  RH  074%=      5-min Rain = 0
KCR2 201308Z 11007KT 01/M03 A3027 RMK A01 T00141028  RH  074%=      5-min Rain = 0
KCR2 201309Z 12008KT 01/M03 A3027 RMK A01 T00131028  RH  074%=      5-min Rain = 0
KCR2 201310Z 12008KT 02/M03 A3027 RMK A01 T00151027  RH  074%=      5-min Rain = 0
KCR2 201311Z 11008KT 02/M03 A3027 RMK A01 T00161027  RH  073%=      5-min Rain = 0
KCR2 201312Z 10007KT 02/M03 A3027 RMK A01 T00171027  RH  072%=      5-min Rain = 0
KCR2 201313Z 09007KT 02/M03 A3027 RMK A01 T00171027  RH  072%=      5-min Rain = 0
KCR2 201314Z 09007KT 02/M03 A3027 RMK A01 T00151028  RH  073%=      5-min Rain = 0
KCR2 201315Z 10007KT 01/M03 A3027 RMK A01 T00131029  RH  074%=      5-min Rain = 0
KCR2 201316Z 11008KT 01/M03 A3027 RMK A01 T00121028  RH  074%=      5-min Rain = 0
KCR2 201317Z 11009KT 01/M03 A3027 RMK A01 T00121028  RH  075%=      5-min Rain = 0
KCR2 201318Z 12009KT 01/M03 A3027 RMK A01 T00121028  RH  075%=      5-min Rain = 0
KCR2 201319Z 12009KT 01/M03 A3027 RMK A01 T00131027  RH  074%=      5-min Rain = 0
KCR2 201320Z 12008KT 02/M03 A3027 RMK A01 T00151027  RH  074%=      5-min Rain = 0
KCR2 201321Z 11007KT 02/M03 A3027 RMK A01 T00161027  RH  073%=      5-min Rain = 0
KCR2 201322Z 10006KT 02/M03 A3027 RMK A01 T00161028  RH  073%=      5-min Rain = 0
KCR2 201323Z 09005KT 02/M03 A3027 RMK A01 T00161028  RH  073%=      5-min Rain = 0
KCR2 201324Z 09005KT 01/M03 A3027 RMK A01 T00141029  RH  073%=      5-min Rain = 0
KCR2 201325Z 10005KT 01/M03 A3027 RMK A01 T00121029  RH  074%=      5-min Rain = 0
KCR2 201326Z 10006KT 01/M03 A3027 RMK A01 T00101029  RH  075%=      5-min Rain = 0
KCR2 201327Z 11007KT 01/M03 A3027 RMK A01 T00101029  RH  075%=      5-min Rain = 0
KCR2 201328Z 11007KT 01/M03 A3027 RMK A01 T00101029  RH  075%=      5-min Rain = 0
KCR2 201329Z 11007KT 01/M03 A3027 RMK A01 T00091029  RH  076%=      5-min Rain = 0
KCR2 201330Z 11008KT 01/M03 A3027 RMK A01 T00101029  RH  076%=      5-min Rain = 0
KCR2 201331Z 11008KT 01/M03 A3027 RMK A01 T00101029  RH  075%=      5-min Rain = 0
KCR2 201332Z 11007KT 01/M03 A3027 RMK A01 T00111029  RH  075%=      5-min Rain = 0
KCR2 201333Z 11007KT 01/M03 A3027 RMK A01 T00121028  RH  075%=      5-min Rain = 0
KCR2 201334Z 11007KT 01/M03 A3027 RMK A01 T00121028  RH  074%=      5-min Rain = 0
KCR2 201335Z 11006KT 01/M03 A3027 RMK A01 T00121028  RH  074%=      5-min Rain = 0
KCR2 201336Z 10006KT 01/M03 A3027 RMK A01 T00111030  RH  075%=      5-min Rain = 0
KCR2 201337Z 11006KT 01/M03 A3027 RMK A01 T00091030  RH  075%=      5-min Rain = 0
KCR2 201338Z 11006KT 01/M03 A3027 RMK A01 T00081030  RH  076%=      5-min Rain = 0
KCR2 201339Z 11006KT 01/M03 A3027 RMK A01 T00071030  RH  076%=      5-min Rain = 0
KCR2 201340Z 11006KT 01/M03 A3027 RMK A01 T00071030  RH  077%=      5-min Rain = 0
KCR2 201341Z 11006KT 01/M03 A3027 RMK A01 T00071029  RH  077%=      5-min Rain = 0
KCR2 201342Z 11006KT 01/M03 A3027 RMK A01 T00071029  RH  077%=      5-min Rain = 0
KCR2 201343Z 11007KT 01/M03 A3027 RMK A01 T00071029  RH  077%=      5-min Rain = 0
KCR2 201344Z 10007KT 01/M03 A3027 RMK A01 T00061030  RH  077%=      5-min Rain = 0
KCR2 201345Z 11007KT 01/M03 A3027 RMK A01 T00061030  RH  077%=      5-min Rain = 0
KCR2 201346Z 11007KT 01/M03 A3027 RMK A01 T00071029  RH  077%=      5-min Rain = 0
KCR2 201347Z 10006KT 01/M03 A3027 RMK A01 T00071029  RH  077%=      5-min Rain = 0
KCR2 201348Z 10006KT 01/M03 A3027 RMK A01 T00071029  RH  076%=      5-min Rain = 0
KCR2 201349Z 11006KT 01/M03 A3027 RMK A01 T00071029  RH  077%=      5-min Rain = 0
KCR2 201350Z 11006KT 01/M03 A3027 RMK A01 T00071029  RH  077%=      5-min Rain = 0
KCR2 201351Z 11006KT 01/M03 A3027 RMK A01 T00061030  RH  077%=      5-min Rain = 0
KCR2 201352Z 11005KT 01/M03 A3027 RMK A01 T00061030  RH  077%=      5-min Rain = 0
KCR2 201353Z 11005KT 01/M03 A3027 RMK A01 T00051030  RH  077%=      5-min Rain = 0
KCR2 201354Z 11005KT 00/M03 A3027 RMK A01 T00041030  RH  078%=      5-min Rain = 0
KCR2 201355Z 11005KT 00/M03 A3027 RMK A01 T00041030  RH  078%=      5-min Rain = 0
KCR2 201356Z 10006KT 00/M03 A3027 RMK A01 T00041030  RH  078%=      5-min Rain = 0
KCR2 201357Z 10006KT 00/M03 A3027 RMK A01 T00031030  RH  078%=      5-min Rain = 0
KCR2 201358Z 09006KT 00/M03 A3028 RMK A01 T00041030  RH  078%=      5-min Rain = 0
KCR2 201359Z 09007KT 00/M03 A3028 RMK A01 T00041030  RH  078%=      5-min Rain = 0
KCR2 201400Z 09007KT 00/M03 A3028 RMK A01 T00041030  RH  078%=      5-min Rain = 0
KCR2 201401Z 09007KT 01/M03 A3028 RMK A01 T00061029  RH  078%=      5-min Rain = 0
KCR2 201402Z 09007KT 01/M03 A3028 RMK A01 T00081028  RH  077%=      5-min Rain = 0
KCR2 201403Z 09006KT 01/M03 A3028 RMK A01 T00081028  RH  076%=      5-min Rain = 0
KCR2 201404Z 10006KT 01/M03 A3027 RMK A01 T00081029  RH  076%=      5-min Rain = 0
KCR2 201405Z 10007KT 01/M03 A3028 RMK A01 T00081029  RH  076%=      5-min Rain = 0
KCR2 201406Z 11006KT 01/M03 A3028 RMK A01 T00091028  RH  076%=      5-min Rain = 0
KCR2 201407Z 11006KT 01/M03 A3028 RMK A01 T00111027  RH  076%=      5-min Rain = 0
KCR2 201408Z 11007KT 01/M03 A3028 RMK A01 T00121027  RH  075%=      5-min Rain = 0
KCR2 201409Z 11006KT 01/M03 A3028 RMK A01 T00131027  RH  075%=      5-min Rain = 0
KCR2 201410Z 11006KT 01/M03 A3028 RMK A01 T00141027  RH  075%=      5-min Rain = 0
KCR2 201411Z 10006KT 02/M03 A3028 RMK A01 T00151026  RH  074%=      5-min Rain = 0
KCR2 201412Z 09006KT 01/M03 A3028 RMK A01 T00141027  RH  074%=      5-min Rain = 0
KCR2 201413Z 07005KT 01/M03 A3028 RMK A01 T00131028  RH  074%=      5-min Rain = 0
KCR2 201414Z 07006KT 01/M03 A3028 RMK A01 T00121028  RH  075%=      5-min Rain = 0
KCR2 201415Z 07006KT 01/M03 A3028 RMK A01 T00101028  RH  076%=      5-min Rain = 0
KCR2 201416Z 08006KT 01/M03 A3028 RMK A01 T00101027  RH  076%=      5-min Rain = 0
KCR2 201417Z 08007KT 01/M03 A3028 RMK A01 T00101027  RH  076%=      5-min Rain = 0
KCR2 201418Z 09007KT 01/M03 A3028 RMK A01 T00111027  RH  076%=      5-min Rain = 0
KCR2 201419Z 09006KT 01/M03 A3028 RMK A01 T00131026  RH  075%=      5-min Rain = 0
KCR2 201420Z 10006KT 01/M03 A3028 RMK A01 T00131026  RH  075%=      5-min Rain = 0
KCR2 201421Z 10006KT 01/M03 A3028 RMK A01 T00141026  RH  075%=      5-min Rain = 0
KCR2 201422Z 11006KT 01/M03 A3028 RMK A01 T00141026  RH  074%=      5-min Rain = 0
KCR2 201423Z 11006KT 02/M03 A3028 RMK A01 T00161026  RH  074%=      5-min Rain = 0
KCR2 201424Z 11006KT 02/M03 A3028 RMK A01 T00161026  RH  074%=      5-min Rain = 0
KCR2 201425Z 11006KT 02/M03 A3028 RMK A01 T00171026  RH  074%=      5-min Rain = 0
KCR2 201426Z 11006KT 02/M03 A3028 RMK A01 T00181025  RH  073%=      5-min Rain = 0
KCR2 201427Z 11006KT 02/M02 A3028 RMK A01 T00201024  RH  073%=      5-min Rain = 0
KCR2 201428Z 11006KT 02/M02 A3028 RMK A01 T00211024  RH  072%=      5-min Rain = 0
KCR2 201429Z 10005KT 02/M02 A3028 RMK A01 T00221023  RH  072%=      5-min Rain = 0
KCR2 201430Z 10005KT 02/M02 A3028 RMK A01 T00231023  RH  071%=      5-min Rain = 0
KCR2 201431Z 09005KT 02/M02 A3028 RMK A01 T00241023  RH  071%=      5-min Rain = 0
KCR2 201432Z 08005KT 03/M02 A3028 RMK A01 T00251023  RH  071%=      5-min Rain = 0
KCR2 201433Z 07004KT 03/M02 A3028 RMK A01 T00251023  RH  071%=      5-min Rain = 0
KCR2 201434Z 08004KT 03/M02 A3028 RMK A01 T00251023  RH  071%=      5-min Rain = 0
KCR2 201435Z 08004KT 02/M02 A3028 RMK A01 T00241023  RH  071%=      5-min Rain = 0
KCR2 201436Z 09004KT 02/M02 A3028 RMK A01 T00241023  RH  071%=      5-min Rain = 0
KCR2 201437Z 09004KT 02/M02 A3028 RMK A01 T00241023  RH  071%=      5-min Rain = 0
KCR2 201438Z 10003KT 02/M02 A3028 RMK A01 T00241023  RH  071%=      5-min Rain = 0
KCR2 201439Z 12004KT 03/M02 A3028 RMK A01 T00251022  RH  071%=      5-min Rain = 0
KCR2 201440Z 13002KT 03/M02 A3028 RMK A01 T00271021  RH  071%=      5-min Rain = 0
KCR2 201441Z 13003KT 03/M02 A3028 RMK A01 T00281020  RH  071%=      5-min Rain = 0
KCR2 201442Z 12004KT 03/M02 A3028 RMK A01 T00291019  RH  070%=      5-min Rain = 0
KCR2 201443Z 12004KT 03/M02 A3028 RMK A01 T00311019  RH  070%=      5-min Rain = 0
KCR2 201444Z 12004KT 03/M02 A3028 RMK A01 T00331019  RH  068%=      5-min Rain = 0
KCR2 201445Z 11004KT 04/M02 A3028 RMK A01 T00361019  RH  067%=      5-min Rain = 0
KCR2 201446Z 11004KT 04/M02 A3028 RMK A01 T00381018  RH  067%=      5-min Rain = 0
KCR2 201447Z 11004KT 04/M02 A3028 RMK A01 T00401017  RH  066%=      5-min Rain = 0
KCR2 201448Z 11004KT 04/M02 A3028 RMK A01 T00411017  RH  066%=      5-min Rain = 0
KCR2 201449Z 11004KT 04/M02 A3028 RMK A01 T00421017  RH  065%=      5-min Rain = 0
KCR2 201450Z 11003KT 04/M02 A3028 RMK A01 T00441017  RH  064%=      5-min Rain = 0
KCR2 201451Z 11003KT 05/M02 A3028 RMK A01 T00451017  RH  064%=      5-min Rain = 0
KCR2 201452Z 11003KT 05/M02 A3028 RMK A01 T00461016  RH  064%=      5-min Rain = 0
KCR2 201453Z 10003KT 05/M02 A3028 RMK A01 T00471017  RH  063%=      5-min Rain = 0
KCR2 201454Z 10003KT 05/M02 A3028 RMK A01 T00481017  RH  063%=      5-min Rain = 0
KCR2 201455Z 10003KT 05/M02 A3028 RMK A01 T00491018  RH  062%=      5-min Rain = 0
KCR2 201456Z 10002KT 05/M02 A3028 RMK A01 T00501017  RH  062%=      5-min Rain = 0
KCR2 201457Z 10003KT 05/M02 A3028 RMK A01 T00511017  RH  061%=      5-min Rain = 0
KCR2 201458Z 11003KT 05/M02 A3028 RMK A01 T00531016  RH  061%=      5-min Rain = 0
KCR2 201459Z 11002KT 05/M02 A3028 RMK A01 T00541016  RH  061%=      5-min Rain = 0
KCR2 201500Z 11003KT 06/M02 A3028 RMK A01 T00551016  RH  060%=      5-min Rain = 0
KCR2 201501Z 11002KT 06/M02 A3028 RMK A01 T00551017  RH  060%=      5-min Rain = 0
KCR2 201502Z 11002KT 06/M02 A3028 RMK A01 T00561017  RH  059%=      5-min Rain = 0
KCR2 201503Z 08001KT 06/M02 A3028 RMK A01 T00571017  RH  059%=      5-min Rain = 0
KCR2 201504Z 10002KT 06/M02 A3028 RMK A01 T00571017  RH  059%=      5-min Rain = 0
KCR2 201505Z 10002KT 06/M02 A3028 RMK A01 T00581016  RH  059%=      5-min Rain = 0
KCR2 201506Z 08001KT 06/M02 A3028 RMK A01 T00591016  RH  059%=      5-min Rain = 0
KCR2 201507Z 09001KT 06/M02 A3029 RMK A01 T00591016  RH  059%=      5-min Rain = 0
KCR2 201508Z 20001KT 06/M02 A3029 RMK A01 T00601015  RH  058%=      5-min Rain = 0
KCR2 201509Z 16001KT 06/M02 A3029 RMK A01 T00631015  RH  058%=      5-min Rain = 0
KCR2 201510Z 16002KT 07/M01 A3029 RMK A01 T00651014  RH  057%=      5-min Rain = 0
KCR2 201511Z 18004KT 07/M01 A3029 RMK A01 T00691013  RH  056%=      5-min Rain = 0
KCR2 201512Z 17006KT 07/M02 A3029 RMK A01 T00731017  RH  053%=      5-min Rain = 0
KCR2 201513Z 18007KT 08/M02 A3029 RMK A01 T00801020  RH  049%=      5-min Rain = 0
KCR2 201514Z 19009KT 09/M02 A3029 RMK A01 T00851021  RH  047%=      5-min Rain = 0
KCR2 201515Z 18010KT 09/M02 A3029 RMK A01 T00871024  RH  046%=      5-min Rain = 0
KCR2 201516Z 18008KT 09/M02 A3029 RMK A01 T00871024  RH  046%=      5-min Rain = 0
KCR2 201517Z 18009KT 09/M02 A3029 RMK A01 T00881023  RH  046%=      5-min Rain = 0
KCR2 201518Z 18009KT 09/M02 A3029 RMK A01 T00881023  RH  046%=      5-min Rain = 0
KCR2 201519Z 17008KT 09/M02 A3029 RMK A01 T00881024  RH  045%=      5-min Rain = 0
KCR2 201520Z 18008KT 09/M02 A3029 RMK A01 T00891021  RH  046%=      5-min Rain = 0
KCR2 201521Z 18008KT 09/M02 A3029 RMK A01 T00901021  RH  046%=      5-min Rain = 0
KCR2 201522Z 18008KT 09/M02 A3029 RMK A01 T00911023  RH  045%=      5-min Rain = 0
KCR2 201523Z 18009KT 09/M02 A3029 RMK A01 T00911023  RH  045%=      5-min Rain = 0
KCR2 201524Z 18010KT 09/M02 A3029 RMK A01 T00911024  RH  044%=      5-min Rain = 0
KCR2 201525Z 18011KT 09/M03 A3029 RMK A01 T00911025  RH  044%=      5-min Rain = 0
KCR2 201526Z 18010KT 09/M02 A3029 RMK A01 T00921023  RH  044%=      5-min Rain = 0
KCR2 201527Z 18010KT 09/M02 A3029 RMK A01 T00931023  RH  044%=      5-min Rain = 0
KCR2 201528Z 18011KT 09/M02 A3029 RMK A01 T00931024  RH  044%=      5-min Rain = 0
KCR2 201529Z 18014KT 09/M03 A3029 RMK A01 T00931025  RH  043%=      5-min Rain = 0
KCR2 201530Z 18012KT 09/M03 A3028 RMK A01 T00931027  RH  043%=      5-min Rain = 0
KCR2 201531Z 18011KT 09/M03 A3028 RMK A01 T00931025  RH  043%=      5-min Rain = 0
KCR2 201532Z 18013KT 09/M03 A3028 RMK A01 T00931026  RH  043%=      5-min Rain = 0
KCR2 201533Z 17012KT 09/M03 A3028 RMK A01 T00931026  RH  043%=      5-min Rain = 0
KCR2 201534Z 17011KT 09/M03 A3029 RMK A01 T00941025  RH  043%=      5-min Rain = 0
KCR2 201535Z 18010KT 10/M03 A3029 RMK A01 T00951025  RH  043%=      5-min Rain = 0
KCR2 201536Z 18008KT 10/M02 A3029 RMK A01 T00961023  RH  043%=      5-min Rain = 0
KCR2 201537Z 17009KT 10/M02 A3029 RMK A01 T00971024  RH  043%=      5-min Rain = 0
KCR2 201538Z 18009KT 10/M02 A3029 RMK A01 T00981023  RH  043%=      5-min Rain = 0
KCR2 201539Z 19008KT 10/M02 A3029 RMK A01 T00981023  RH  043%=      5-min Rain = 0
KCR2 201540Z 19010KT 10/M02 A3029 RMK A01 T00991022  RH  043%=      5-min Rain = 0
KCR2 201541Z 19012KT 10/M03 A3029 RMK A01 T00981027  RH  041%=      5-min Rain = 0
KCR2 201542Z 18011KT 10/M03 A3029 RMK A01 T00971026  RH  042%=      5-min Rain = 0
KCR2 201543Z 19013KT 10/M03 A3029 RMK A01 T00971026  RH  042%=      5-min Rain = 0
KCR2 201544Z 19012KT 10/M03 A3029 RMK A01 T00971026  RH  042%=      5-min Rain = 0
KCR2 201545Z 18011KT 10/M03 A3029 RMK A01 T00971025  RH  042%=      5-min Rain = 0
KCR2 201546Z 18012KT 10/M03 A3029 RMK A01 T00991025  RH  042%=      5-min Rain = 0
KCR2 201547Z 18011KT 10/M03 A3029 RMK A01 T00991026  RH  041%=      5-min Rain = 0
KCR2 201548Z 18010KT 10/M03 A3029 RMK A01 T00991025  RH  042%=      5-min Rain = 0
KCR2 201549Z 18010KT 10/M03 A3029 RMK A01 T01001025  RH  042%=      5-min Rain = 0
KCR2 201550Z 19009KT 10/M03 A3029 RMK A01 T01001025  RH  042%=      5-min Rain = 0
KCR2 201551Z 18009KT 10/M03 A3029 RMK A01 T01011025  RH  041%=      5-min Rain = 0
KCR2 201552Z 18010KT 10/M02 A3029 RMK A01 T01011024  RH  041%=      5-min Rain = 0
KCR2 201553Z 19011KT 10/M02 A3029 RMK A01 T01021024  RH  041%=      5-min Rain = 0
KCR2 201554Z 19009KT 10/M02 A3029 RMK A01 T01021022  RH  042%=      5-min Rain = 0
KCR2 201555Z 19011KT 10/M03 A3029 RMK A01 T01021025  RH  041%=      5-min Rain = 0
KCR2 201556Z 19014KT 10/M03 A3029 RMK A01 T01011027  RH  041%=      5-min Rain = 0
KCR2 201557Z 19014KT 10/M03 A3029 RMK A01 T00991029  RH  041%=      5-min Rain = 0
KCR2 201558Z 19015KT 10/M03 A3029 RMK A01 T00991027  RH  041%=      5-min Rain = 0
KCR2 201559Z 19014KT 10/M03 A3029 RMK A01 T00981028  RH  041%=      5-min Rain = 0
KCR2 201600Z 19014KT 10/M03 A3029 RMK A01 T00981027  RH  041%=      5-min Rain = 0
KCR2 201601Z 18015KT 10/M03 A3029 RMK A01 T00981027  RH  041%=      5-min Rain = 0
KCR2 201602Z 19012KT 10/M03 A3029 RMK A01 T00981027  RH  041%=      5-min Rain = 0
KCR2 201603Z 20013KT 10/M03 A3029 RMK A01 T01001026  RH  041%=      5-min Rain = 0
KCR2 201604Z 19012KT 10/M03 A3029 RMK A01 T00991027  RH  041%=      5-min Rain = 0
KCR2 201605Z 19013KT 10/M03 A3029 RMK A01 T00991027  RH  041%=      5-min Rain = 0
KCR2 201606Z 19012KT 10/M03 A3029 RMK A01 T01001026  RH  041%=      5-min Rain = 0
KCR2 201607Z 19013KT 10/M03 A3029 RMK A01 T01011027  RH  041%=      5-min Rain = 0
KCR2 201608Z 19013KT 10/M03 A3029 RMK A01 T01011027  RH  040%=      5-min Rain = 0
KCR2 201609Z 20013KT 10/M03 A3029 RMK A01 T01021027  RH  040%=      5-min Rain = 0
KCR2 201610Z 19011KT 10/M03 A3029 RMK A01 T01021026  RH  041%=      5-min Rain = 0
KCR2 201611Z 19010KT 10/M03 A3029 RMK A01 T01021025  RH  041%=      5-min Rain = 0
KCR2 201612Z 19011KT 10/M02 A3029 RMK A01 T01031024  RH  041%=      5-min Rain = 0
KCR2 201613Z 19011KT 10/M02 A3029 RMK A01 T01041024  RH  041%=      5-min Rain = 0
KCR2 201614Z 19014KT 11/M03 A3029 RMK A01 T01051025  RH  040%=      5-min Rain = 0
KCR2 201615Z 19012KT 10/M03 A3029 RMK A01 T01041027  RH  040%=      5-min Rain = 0
KCR2 201616Z 19013KT 10/M03 A3029 RMK A01 T01031027  RH  040%=      5-min Rain = 0
KCR2 201617Z 19013KT 10/M03 A3029 RMK A01 T01031027  RH  040%=      5-min Rain = 0
KCR2 201618Z 19011KT 10/M03 A3029 RMK A01 T01031027  RH  040%=      5-min Rain = 0
KCR2 201619Z 19012KT 10/M03 A3028 RMK A01 T01041025  RH  040%=      5-min Rain = 0
KCR2 201620Z 19012KT 11/M03 A3028 RMK A01 T01051026  RH  040%=      5-min Rain = 0
KCR2 201621Z 19013KT 11/M03 A3028 RMK A01 T01051028  RH  039%=      5-min Rain = 0
KCR2 201622Z 19012KT 11/M03 A3028 RMK A01 T01051028  RH  039%=      5-min Rain = 0
KCR2 201623Z 19012KT 11/M03 A3028 RMK A01 T01061026  RH  040%=      5-min Rain = 0
KCR2 201624Z 19012KT 11/M03 A3028 RMK A01 T01071026  RH  039%=      5-min Rain = 0
KCR2 201625Z 19010KT 11/M03 A3028 RMK A01 T01071028  RH  039%=      5-min Rain = 0
KCR2 201626Z 19012KT 11/M03 A3028 RMK A01 T01071026  RH  039%=      5-min Rain = 0
KCR2 201627Z 19012KT 11/M03 A3028 RMK A01 T01071027  RH  039%=      5-min Rain = 0
KCR2 201628Z 19011KT 11/M03 A3028 RMK A01 T01071027  RH  039%=      5-min Rain = 0
KCR2 201629Z 18010KT 11/M03 A3028 RMK A01 T01071026  RH  039%=      5-min Rain = 0
KCR2 201630Z 18010KT 11/M03 A3028 RMK A01 T01081025  RH  039%=      5-min Rain = 0
KCR2 201631Z 19010KT 11/M03 A3028 RMK A01 T01091025  RH  039%=      5-min Rain = 0
KCR2 201632Z 18010KT 11/M02 A3028 RMK A01 T01101024  RH  039%=      5-min Rain = 0
KCR2 201633Z 19011KT 11/M03 A3028 RMK A01 T01111026  RH  038%=      5-min Rain = 0
KCR2 201634Z 18010KT 11/M03 A3028 RMK A01 T01111026  RH  038%=      5-min Rain = 0
KCR2 201635Z 19011KT 11/M03 A3028 RMK A01 T01121025  RH  038%=      5-min Rain = 0
KCR2 201636Z 19011KT 11/M03 A3028 RMK A01 T01121027  RH  038%=      5-min Rain = 0
KCR2 201637Z 19013KT 11/M03 A3028 RMK A01 T01111027  RH  038%=      5-min Rain = 0
KCR2 201638Z 19012KT 11/M03 A3028 RMK A01 T01111027  RH  038%=      5-min Rain = 0
KCR2 201639Z 19013KT 11/M03 A3028 RMK A01 T01111028  RH  038%=      5-min Rain = 0
KCR2 201640Z 18012KT 11/M03 A3028 RMK A01 T01111028  RH  038%=      5-min Rain = 0
KCR2 201641Z 18012KT 11/M03 A3028 RMK A01 T01101028  RH  038%=      5-min Rain = 0
KCR2 201642Z 18012KT 11/M03 A3027 RMK A01 T01111027  RH  038%=      5-min Rain = 0
KCR2 201643Z 18011KT 11/M03 A3027 RMK A01 T01121027  RH  038%=      5-min Rain = 0
KCR2 201644Z 18010G15KT 11/M03 A3027 RMK A01 T01131025  RH  038%=      5-min Rain = 0
KCR2 201645Z 18014KT 12/M03 A3027 RMK A01 T01151025  RH  037%=      5-min Rain = 0
KCR2 201646Z 19011KT 12/M03 A3027 RMK A01 T01151027  RH  037%=      5-min Rain = 0
KCR2 201647Z 19011KT 12/M03 A3027 RMK A01 T01151028  RH  037%=      5-min Rain = 0
KCR2 201648Z 20010KT 12/M03 A3027 RMK A01 T01161029  RH  036%=      5-min Rain = 0
KCR2 201649Z 20011KT 12/M03 A3027 RMK A01 T01171027  RH  036%=      5-min Rain = 0
KCR2 201650Z 19012KT 12/M03 A3027 RMK A01 T01191025  RH  037%=      5-min Rain = 0
KCR2 201651Z 19011KT 12/M03 A3027 RMK A01 T01201027  RH  036%=      5-min Rain = 0
KCR2 201652Z 20010KT 12/M03 A3027 RMK A01 T01201026  RH  036%=      5-min Rain = 0
KCR2 201653Z 20010KT 12/M03 A3027 RMK A01 T01221027  RH  035%=      5-min Rain = 0
KCR2 201654Z 19012KT 12/M03 A3027 RMK A01 T01231026  RH  035%=      5-min Rain = 0
KCR2 201655Z 19012KT 12/M03 A3027 RMK A01 T01231028  RH  035%=      5-min Rain = 0
KCR2 201656Z 19013KT 12/M03 A3027 RMK A01 T01231027  RH  035%=      5-min Rain = 0
KCR2 201657Z 18012KT 12/M03 A3026 RMK A01 T01231027  RH  035%=      5-min Rain = 0
KCR2 201658Z 19014KT 12/M03 A3026 RMK A01 T01231027  RH  035%=      5-min Rain = 0
KCR2 201659Z 19014KT 12/M03 A3026 RMK A01 T01231027  RH  035%=      5-min Rain = 0
KCR2 201700Z 19013KT 12/M03 A3026 RMK A01 T01231031  RH  034%=      5-min Rain = 0
KCR2 201701Z 20011KT 12/M03 A3026 RMK A01 T01231030  RH  034%=      5-min Rain = 0
KCR2 201702Z 20011KT 12/M03 A3026 RMK A01 T01241027  RH  035%=      5-min Rain = 0
KCR2 201703Z 20012KT 13/M03 A3026 RMK A01 T01261025  RH  035%=      5-min Rain = 0
KCR2 201704Z 20011KT 13/M03 A3026 RMK A01 T01271027  RH  034%=      5-min Rain = 0
KCR2 201705Z 18012KT 13/M03 A3026 RMK A01 T01261026  RH  035%=      5-min Rain = 0
KCR2 201706Z 19012KT 13/M03 A3026 RMK A01 T01261025  RH  035%=      5-min Rain = 0
KCR2 201707Z 19013KT 13/M03 A3026 RMK A01 T01261026  RH  035%=      5-min Rain = 0
KCR2 201708Z 19011KT 13/M03 A3026 RMK A01 T01261026  RH  035%=      5-min Rain = 0
KCR2 201709Z 19011G16KT 13/M03 A3026 RMK A01 T01271025  RH  035%=      5-min Rain = 0
KCR2 201710Z 19013KT 13/M03 A3026 RMK A01 T01281026  RH  034%=      5-min Rain = 0
KCR2 201711Z 19014KT 13/M03 A3026 RMK A01 T01281029  RH  034%=      5-min Rain = 0
KCR2 201712Z 18012KT 13/M03 A3026 RMK A01 T01261028  RH  034%=      5-min Rain = 0
KCR2 201713Z 18013KT 13/M02 A3026 RMK A01 T01281024  RH  035%=      5-min Rain = 0
KCR2 201714Z 18014KT 13/M03 A3026 RMK A01 T01301026  RH  034%=      5-min Rain = 0
KCR2 201715Z 18014KT 13/M03 A3026 RMK A01 T01281026  RH  034%=      5-min Rain = 0
KCR2 201716Z 19015KT 13/M03 A3026 RMK A01 T01291026  RH  034%=      5-min Rain = 0
KCR2 201717Z 19013KT 13/M03 A3026 RMK A01 T01291028  RH  033%=      5-min Rain = 0
KCR2 201718Z 19014KT 13/M03 A3026 RMK A01 T01301027  RH  034%=      5-min Rain = 0
KCR2 201719Z 19013KT 13/M03 A3026 RMK A01 T01301028  RH  033%=      5-min Rain = 0
KCR2 201720Z 19011KT 13/M03 A3026 RMK A01 T01311028  RH  033%=      5-min Rain = 0
KCR2 201721Z 19013KT 13/M03 A3026 RMK A01 T01341025  RH  033%=      5-min Rain = 0
KCR2 201722Z 19013KT 13/M03 A3026 RMK A01 T01341028  RH  032%=      5-min Rain = 0
KCR2 201723Z 19014KT 13/M03 A3026 RMK A01 T01341026  RH  033%=      5-min Rain = 0
KCR2 201724Z 19012KT 13/M03 A3026 RMK A01 T01341027  RH  033%=      5-min Rain = 0
KCR2 201725Z 19014KT 13/M03 A3025 RMK A01 T01341027  RH  033%=      5-min Rain = 0
KCR2 201726Z 20013KT 13/M03 A3025 RMK A01 T01331029  RH  032%=      5-min Rain = 0
KCR2 201727Z 19014KT 13/M03 A3025 RMK A01 T01331027  RH  033%=      5-min Rain = 0
KCR2 201728Z 19013KT 13/M03 A3025 RMK A01 T01321029  RH  033%=      5-min Rain = 0
KCR2 201729Z 18011KT 13/M03 A3025 RMK A01 T01301027  RH  033%=      5-min Rain = 0
KCR2 201730Z 18013KT 13/M03 A3025 RMK A01 T01301026  RH  034%=      5-min Rain = 0
KCR2 201731Z 18014KT 13/M03 A3025 RMK A01 T01311027  RH  033%=      5-min Rain = 0
KCR2 201732Z 18013KT 13/M03 A3025 RMK A01 T01311027  RH  033%=      5-min Rain = 0
KCR2 201733Z 19013KT 13/M03 A3025 RMK A01 T01301029  RH  033%=      5-min Rain = 0
KCR2 201734Z 20011KT 13/M03 A3025 RMK A01 T01301032  RH  032%=      5-min Rain = 0
KCR2 201735Z 19010KT 13/M03 A3025 RMK A01 T01321027  RH  033%=      5-min Rain = 0
KCR2 201736Z 18012KT 14/M03 A3025 RMK A01 T01351025  RH  033%=      5-min Rain = 0
KCR2 201737Z 18014KT 14/M02 A3025 RMK A01 T01361024  RH  033%=      5-min Rain = 0
KCR2 201738Z 19013KT 14/M03 A3025 RMK A01 T01351025  RH  033%=      5-min Rain = 0
KCR2 201739Z 19013KT 13/M03 A3025 RMK A01 T01341029  RH  032%=      5-min Rain = 0
KCR2 201740Z 19014KT 13/M03 A3025 RMK A01 T01341028  RH  032%=      5-min Rain = 0
KCR2 201741Z 19013KT 13/M03 A3025 RMK A01 T01331029  RH  032%=      5-min Rain = 0
KCR2 201742Z 19013KT 13/M03 A3025 RMK A01 T01321029  RH  033%=      5-min Rain = 0
KCR2 201743Z 20013KT 13/M03 A3025 RMK A01 T01321028  RH  033%=      5-min Rain = 0
KCR2 201744Z 19014KT 13/M03 A3025 RMK A01 T01331028  RH  033%=      5-min Rain = 0
KCR2 201745Z 18015KT 13/M03 A3025 RMK A01 T01331027  RH  033%=      5-min Rain = 0
KCR2 201746Z 19013KT 13/M03 A3025 RMK A01 T01331028  RH  032%=      5-min Rain = 0
KCR2 201747Z 19014KT 13/M03 A3025 RMK A01 T01341027  RH  033%=      5-min Rain = 0
KCR2 201748Z 19015KT 14/M02 A3025 RMK A01 T01351024  RH  033%=      5-min Rain = 0
KCR2 201749Z 19013KT 13/M02 A3024 RMK A01 T01341024  RH  033%=      5-min Rain = 0
KCR2 201750Z 20015KT 13/M02 A3024 RMK A01 T01341024  RH  033%=      5-min Rain = 0
KCR2 201751Z 20013KT 14/M03 A3024 RMK A01 T01351025  RH  033%=      5-min Rain = 0
KCR2 201752Z 20013KT 14/M03 A3024 RMK A01 T01351025  RH  033%=      5-min Rain = 0
KCR2 201753Z 20013KT 14/M02 A3024 RMK A01 T01361024  RH  033%=      5-min Rain = 0
KCR2 201754Z 19014KT 14/M02 A3024 RMK A01 T01361024  RH  033%=      5-min Rain = 0
KCR2 201755Z 20013KT 14/M02 A3024 RMK A01 T01371022  RH  033%=      5-min Rain = 0
KCR2 201756Z 20013KT 14/M02 A3024 RMK A01 T01371024  RH  033%=      5-min Rain = 0
KCR2 201757Z 20014KT 14/M02 A3024 RMK A01 T01371024  RH  033%=      5-min Rain = 0
KCR2 201758Z 19012KT 14/M02 A3025 RMK A01 T01381023  RH  033%=      5-min Rain = 0
KCR2 201759Z 19012KT 14/M03 A3025 RMK A01 T01381025  RH  032%=      5-min Rain = 0
KCR2 201800Z 20013KT 14/M02 A3025 RMK A01 T01401022  RH  033%=      5-min Rain = 0
KCR2 201801Z 19013KT 14/M03 A3024 RMK A01 T01411026  RH  031%=      5-min Rain = 0
KCR2 201802Z 20011KT 14/M03 A3024 RMK A01 T01401029  RH  031%=      5-min Rain = 0
KCR2 201803Z 20013KT 14/M03 A3024 RMK A01 T01411029  RH  031%=      5-min Rain = 0
KCR2 201804Z 20012KT 14/M03 A3024 RMK A01 T01421027  RH  031%=      5-min Rain = 0
KCR2 201805Z 19011KT 14/M03 A3024 RMK A01 T01431026  RH  031%=      5-min Rain = 0
KCR2 201806Z 19012KT 15/M02 A3024 RMK A01 T01451022  RH  032%=      5-min Rain = 0
KCR2 201807Z 19012KT 14/M03 A3024 RMK A01 T01441025  RH  031%=      5-min Rain = 0
KCR2 201808Z 19011KT 14/M02 A3024 RMK A01 T01421023  RH  032%=      5-min Rain = 0
KCR2 201809Z 20012KT 14/M02 A3024 RMK A01 T01411022  RH  032%=      5-min Rain = 0
KCR2 201810Z 19014KT 14/M02 A3024 RMK A01 T01431022  RH  032%=      5-min Rain = 0
KCR2 201811Z 19013KT 14/M02 A3024 RMK A01 T01441022  RH  032%=      5-min Rain = 0
KCR2 201812Z 19012KT 15/M02 A3024 RMK A01 T01461024  RH  031%=      5-min Rain = 0
KCR2 201813Z 19014KT 15/M02 A3024 RMK A01 T01451023  RH  031%=      5-min Rain = 0
KCR2 201814Z 18011KT 15/M02 A3024 RMK A01 T01451022  RH  032%=      5-min Rain = 0
KCR2 201815Z 19013KT 15/M02 A3024 RMK A01 T01471023  RH  031%=      5-min Rain = 0
KCR2 201816Z 20011KT 15/M03 A3024 RMK A01 T01461031  RH  029%=      5-min Rain = 0
KCR2 201817Z 21009KT 14/M03 A3024 RMK A01 T01441028  RH  030%=      5-min Rain = 0
KCR2 201818Z 20011KT 15/M03 A3024 RMK A01 T01461028  RH  030%=      5-min Rain = 0
KCR2 201819Z 18012KT 15/M03 A3023 RMK A01 T01461025  RH  030%=      5-min Rain = 0
KCR2 201820Z 21014KT 15/M02 A3023 RMK A01 T01471024  RH  031%=      5-min Rain = 0
KCR2 201821Z 20010KT 15/M03 A3023 RMK A01 T01481027  RH  030%=      5-min Rain = 0
KCR2 201822Z 19011KT 15/M02 A3023 RMK A01 T01481024  RH  030%=      5-min Rain = 0
KCR2 201823Z 18011KT 15/M02 A3023 RMK A01 T01491021  RH  031%=      5-min Rain = 0
KCR2 201824Z 20013KT 15/M02 A3023 RMK A01 T01491021  RH  031%=      5-min Rain = 0
KCR2 201825Z 20012KT 15/M02 A3023 RMK A01 T01491024  RH  030%=      5-min Rain = 0
KCR2 201826Z 20010KT 15/M03 A3023 RMK A01 T01471026  RH  030%=      5-min Rain = 0
KCR2 201827Z 19012KT 15/M02 A3023 RMK A01 T01471023  RH  031%=      5-min Rain = 0
KCR2 201828Z 20010KT 15/M02 A3023 RMK A01 T01481021  RH  031%=      5-min Rain = 0
KCR2 201829Z 20012KT 15/M02 A3022 RMK A01 T01501022  RH  031%=      5-min Rain = 0
KCR2 201830Z 20012KT 15/M02 A3022 RMK A01 T01491022  RH  031%=      5-min Rain = 0
KCR2 201831Z 20012KT 15/M02 A3022 RMK A01 T01511019  RH  031%=      5-min Rain = 0
KCR2 201832Z 20014KT 15/M02 A3022 RMK A01 T01531024  RH  029%=      5-min Rain = 0
KCR2 201833Z 21013KT 15/M03 A3022 RMK A01 T01511027  RH  029%=      5-min Rain = 0
KCR2 201834Z 21012KT 15/M03 A3022 RMK A01 T01501027  RH  029%=      5-min Rain = 0
KCR2 201835Z 21013KT 15/M03 A3022 RMK A01 T01491025  RH  030%=      5-min Rain = 0
KCR2 201836Z 20015KT 15/M03 A3021 RMK A01 T01511025  RH  030%=      5-min Rain = 0
KCR2 201837Z 20013KT 15/M03 A3021 RMK A01 T01521029  RH  029%=      5-min Rain = 0
KCR2 201838Z 19013KT 15/M03 A3021 RMK A01 T01521028  RH  029%=      5-min Rain = 0
KCR2 201839Z 20010KT 15/M03 A3021 RMK A01 T01501027  RH  029%=      5-min Rain = 0
KCR2 201840Z 19010KT 15/M02 A3021 RMK A01 T01511024  RH  030%=      5-min Rain = 0
KCR2 201841Z 20011KT 15/M03 A3021 RMK A01 T01521027  RH  029%=      5-min Rain = 0
KCR2 201842Z 19012KT 15/M03 A3021 RMK A01 T01511028  RH  029%=      5-min Rain = 0
KCR2 201843Z 18013KT 15/M03 A3021 RMK A01 T01521025  RH  029%=      5-min Rain = 0
KCR2 201844Z 17012KT 15/M03 A3021 RMK A01 T01531026  RH  029%=      5-min Rain = 0
KCR2 201845Z 18012KT 15/M03 A3021 RMK A01 T01531025  RH  029%=      5-min Rain = 0
KCR2 201846Z 20013KT 15/M02 A3021 RMK A01 T01541024  RH  029%=      5-min Rain = 0
KCR2 201847Z 21010KT 16/M03 A3021 RMK A01 T01551027  RH  028%=      5-min Rain = 0
KCR2 201848Z 20009KT 16/M03 A3021 RMK A01 T01551026  RH  029%=      5-min Rain = 0
KCR2 201849Z 18009KT 16/M02 A3021 RMK A01 T01551023  RH  029%=      5-min Rain = 0
KCR2 201850Z 18014KT 16/M02 A3021 RMK A01 T01561023  RH  029%=      5-min Rain = 0
KCR2 201851Z 20013KT 16/M02 A3021 RMK A01 T01561024  RH  029%=      5-min Rain = 0
KCR2 201852Z 20013KT 16/M02 A3021 RMK A01 T01561023  RH  029%=      5-min Rain = 0
KCR2 201853Z 20010KT 16/M02 A3021 RMK A01 T01561023  RH  029%=      5-min Rain = 0
KCR2 201854Z 19013KT 16/M02 A3021 RMK A01 T01571022  RH  029%=      5-min Rain = 0
KCR2 201855Z 21011KT 16/M02 A3021 RMK A01 T01551024  RH  029%=      5-min Rain = 0
KCR2 201856Z 19013KT 15/M02 A302 RMK A01 T01541022  RH  030%=      5-min Rain = 0
KCR2 201857Z 19013KT 15/M02 A302 RMK A01 T01541021  RH  030%=      5-min Rain = 0
KCR2 201858Z 20013KT 16/M02 A302 RMK A01 T01551020  RH  030%=      5-min Rain = 0
KCR2 201859Z 21012KT 16/M02 A302 RMK A01 T01561022  RH  029%=      5-min Rain = 0
KCR2 201900Z 21013KT 15/M02 A302 RMK A01 T01541022  RH  030%=      5-min Rain = 0
KCR2 201901Z 21012KT 15/M03 A302 RMK A01 T01531025  RH  029%=      5-min Rain = 0
KCR2 201902Z 21010KT 15/M02 A302 RMK A01 T01521024  RH  030%=      5-min Rain = 0
KCR2 201903Z 20012KT 15/M02 A302 RMK A01 T01531021  RH  030%=      5-min Rain = 0
KCR2 201904Z 20013KT 16/M02 A302 RMK A01 T01551021  RH  030%=      5-min Rain = 0
KCR2 201905Z 21012KT 16/M02 A302 RMK A01 T01551022  RH  030%=      5-min Rain = 0
KCR2 201906Z 20011KT 15/M02 A302 RMK A01 T01541024  RH  029%=      5-min Rain = 0
KCR2 201907Z 20011KT 15/M02 A302 RMK A01 T01541022  RH  030%=      5-min Rain = 0
KCR2 201908Z 22012KT 16/M02 A302 RMK A01 T01571022  RH  029%=      5-min Rain = 0
KCR2 201909Z 21010KT 16/M02 A302 RMK A01 T01571023  RH  029%=      5-min Rain = 0
KCR2 201910Z 20013KT 16/M02 A302 RMK A01 T01591018  RH  030%=      5-min Rain = 0
KCR2 201911Z 21010KT 16/M02 A302 RMK A01 T01601019  RH  029%=      5-min Rain = 0
KCR2 201912Z 20011KT 16/M02 A302 RMK A01 T01621017  RH  029%=      5-min Rain = 0
KCR2 201913Z 20012KT 16/M02 A302 RMK A01 T01621022  RH  028%=      5-min Rain = 0
KCR2 201914Z 21011KT 16/M02 A302 RMK A01 T01591022  RH  029%=      5-min Rain = 0
KCR2 201915Z 21009KT 16/M02 A302 RMK A01 T01591021  RH  029%=      5-min Rain = 0
KCR2 201916Z 20009KT 16/M02 A302 RMK A01 T01601018  RH  030%=      5-min Rain = 0
KCR2 201917Z 20012KT 16/M02 A3019 RMK A01 T01621018  RH  029%=      5-min Rain = 0
KCR2 201918Z 20012KT 16/M02 A3019 RMK A01 T01611019  RH  029%=      5-min Rain = 0
KCR2 201919Z 20008KT 16/M02 A3019 RMK A01 T01571022  RH  029%=      5-min Rain = 0
KCR2 201920Z 18012KT 16/M02 A3019 RMK A01 T01571017  RH  030%=      5-min Rain = 0
KCR2 201921Z 19011KT 16/M02 A3019 RMK A01 T01601019  RH  029%=      5-min Rain = 0
KCR2 201922Z 21008KT 16/M02 A3019 RMK A01 T01631019  RH  029%=      5-min Rain = 0
KCR2 201923Z 21009KT 17/M02 A3019 RMK A01 T01651015  RH  029%=      5-min Rain = 0
KCR2 201924Z 21010KT 17/M01 A3019 RMK A01 T01691012  RH  029%=      5-min Rain = 0
KCR2 201925Z 18013KT 17/M02 A3018 RMK A01 T01701018  RH  028%=      5-min Rain = 0
KCR2 201926Z 19013KT 17/M02 A3018 RMK A01 T01671019  RH  028%=      5-min Rain = 0
KCR2 201927Z 20012KT 16/M02 A3018 RMK A01 T01631021  RH  028%=      5-min Rain = 0
KCR2 201928Z 19010KT 16/M03 A3018 RMK A01 T01601025  RH  028%=      5-min Rain = 0
KCR2 201929Z 21010KT 16/M02 A3018 RMK A01 T01591024  RH  028%=      5-min Rain = 0
KCR2 201930Z 19011KT 16/M02 A3018 RMK A01 T01601021  RH  029%=      5-min Rain = 0
KCR2 201931Z 19009KT 16/M02 A3018 RMK A01 T01621022  RH  028%=      5-min Rain = 0
KCR2 201932Z 21010KT 16/M02 A3018 RMK A01 T01621020  RH  029%=      5-min Rain = 0
KCR2 201933Z 20010KT 17/M02 A3018 RMK A01 T01651019  RH  028%=      5-min Rain = 0
KCR2 201934Z 19010KT 17/M02 A3017 RMK A01 T01661019  RH  028%=      5-min Rain = 0
KCR2 201935Z 20011KT 17/M02 A3017 RMK A01 T01651017  RH  029%=      5-min Rain = 0
KCR2 201936Z 19012KT 17/M02 A3017 RMK A01 T01661017  RH  028%=      5-min Rain = 0
KCR2 201937Z 20011KT 17/M02 A3017 RMK A01 T01661021  RH  028%=      5-min Rain = 0
KCR2 201938Z 19010KT 17/M02 A3017 RMK A01 T01661018  RH  028%=      5-min Rain = 0
KCR2 201939Z 19010KT 17/M02 A3017 RMK A01 T01671018  RH  028%=      5-min Rain = 0
KCR2 201940Z 18010KT 17/M02 A3017 RMK A01 T01661019  RH  028%=      5-min Rain = 0
KCR2 201941Z 19007KT 17/M02 A3017 RMK A01 T01661021  RH  028%=      5-min Rain = 0
KCR2 201942Z 19009KT 17/M02 A3017 RMK A01 T01681016  RH  028%=      5-min Rain = 0
KCR2 201943Z 20007KT 17/M02 A3017 RMK A01 T01701019  RH  027%=      5-min Rain = 0
KCR2 201944Z 17010KT 17/M02 A3017 RMK A01 T01711017  RH  028%=      5-min Rain = 0
KCR2 201945Z 18010KT 17/M02 A3017 RMK A01 T01701018  RH  028%=      5-min Rain = 0
KCR2 201946Z 18009KT 17/M02 A3017 RMK A01 T01671020  RH  028%=      5-min Rain = 0
KCR2 201947Z 17009KT 17/M02 A3017 RMK A01 T01671017  RH  028%=      5-min Rain = 0
KCR2 201948Z 16008KT 17/M02 A3017 RMK A01 T01671015  RH  029%=      5-min Rain = 0
KCR2 201949Z 19010KT 17/M01 A3017 RMK A01 T01691013  RH  029%=      5-min Rain = 0
KCR2 201950Z 20008KT 17/M02 A3017 RMK A01 T01711018  RH  027%=      5-min Rain = 0
KCR2 201951Z 19009KT 17/M02 A3017 RMK A01 T01711019  RH  027%=      5-min Rain = 0
KCR2 201952Z 19009KT 17/M02 A3016 RMK A01 T01711021  RH  027%=      5-min Rain = 0
KCR2 201953Z 19009KT 17/M02 A3016 RMK A01 T01711019  RH  027%=      5-min Rain = 0
KCR2 201954Z 19008KT 17/M02 A3016 RMK A01 T01711019  RH  027%=      5-min Rain = 0
KCR2 201955Z 23008KT 17/M02 A3016 RMK A01 T01731018  RH  027%=      5-min Rain = 0
KCR2 201956Z 22010KT 17/M02 A3016 RMK A01 T01731020  RH  027%=      5-min Rain = 0
KCR2 201957Z 22011KT 17/M03 A3016 RMK A01 T01731025  RH  026%=      5-min Rain = 0
KCR2 201958Z 21011KT 17/M02 A3016 RMK A01 T01741023  RH  026%=      5-min Rain = 0
KCR2 201959Z 21010KT 17/M02 A3016 RMK A01 T01741018  RH  027%=      5-min Rain = 0
KCR2 202000Z 21009KT 18/M02 A3016 RMK A01 T01751020  RH  026%=      5-min Rain = 0
KCR2 202001Z 22009KT 17/M03 A3016 RMK A01 T01741026  RH  025%=      5-min Rain = 0
KCR2 202002Z 20009KT 17/M03 A3016 RMK A01 T01721026  RH  026%=      5-min Rain = 0
KCR2 202003Z 19011KT 17/M02 A3016 RMK A01 T01731023  RH  026%=      5-min Rain = 0
KCR2 202004Z 19010KT 17/M02 A3016 RMK A01 T01721024  RH  026%=      5-min Rain = 0
KCR2 202005Z 19009KT 17/M02 A3015 RMK A01 T01701022  RH  027%=      5-min Rain = 0
KCR2 202006Z 19009KT 17/M02 A3015 RMK A01 T01701018  RH  028%=      5-min Rain = 0
KCR2 202007Z 18012KT 17/M01 A3015 RMK A01 T01731014  RH  028%=      5-min Rain = 0
KCR2 202008Z 19012KT 17/M02 A3015 RMK A01 T01741019  RH  027%=      5-min Rain = 0
KCR2 202009Z 19009KT 17/M02 A3015 RMK A01 T01711019  RH  027%=      5-min Rain = 0
KCR2 202010Z 17011KT 17/M02 A3015 RMK A01 T01721016  RH  028%=      5-min Rain = 0
KCR2 202011Z 16010KT 17/M02 A3015 RMK A01 T01721018  RH  027%=      5-min Rain = 0
KCR2 202012Z 17011KT 17/M02 A3015 RMK A01 T01711017  RH  028%=      5-min Rain = 0
KCR2 202013Z 17010KT 17/M02 A3015 RMK A01 T01721017  RH  028%=      5-min Rain = 0
KCR2 202014Z 17008KT 17/M02 A3015 RMK A01 T01741018  RH  027%=      5-min Rain = 0
KCR2 202015Z 17009KT 17/M02 A3015 RMK A01 T01741018  RH  027%=      5-min Rain = 0
KCR2 202016Z 21008KT 17/M02 A3015 RMK A01 T01741018  RH  027%=      5-min Rain = 0
KCR2 202017Z 19009KT 18/M02 A3014 RMK A01 T01751020  RH  027%=      5-min Rain = 0
KCR2 202018Z 18008KT 18/M02 A3014 RMK A01 T01751019  RH  027%=      5-min Rain = 0
KCR2 202019Z 20011KT 18/M02 A3014 RMK A01 T01751019  RH  026%=      5-min Rain = 0
KCR2 202020Z 21008KT 17/M02 A3014 RMK A01 T01741022  RH  026%=      5-min Rain = 0
KCR2 202021Z 19009KT 17/M02 A3014 RMK A01 T01731021  RH  027%=      5-min Rain = 0
KCR2 202022Z 20009KT 17/M02 A3014 RMK A01 T01721019  RH  027%=      5-min Rain = 0
KCR2 202023Z 21008KT 17/M02 A3014 RMK A01 T01721016  RH  028%=      5-min Rain = 0
KCR2 202024Z 19009KT 18/M02 A3014 RMK A01 T01751015  RH  028%=      5-min Rain = 0
KCR2 202025Z 19009KT 18/M02 A3014 RMK A01 T01761017  RH  027%=      5-min Rain = 0
KCR2 202026Z 19012KT 18/M01 A3014 RMK A01 T01751013  RH  028%=      5-min Rain = 0
KCR2 202027Z 19009KT 18/M01 A3014 RMK A01 T01771011  RH  028%=      5-min Rain = 0
KCR2 202028Z 17009KT 18/M01 A3014 RMK A01 T01781013  RH  027%=      5-min Rain = 0
KCR2 202029Z 18009KT 18/M02 A3014 RMK A01 T01761015  RH  027%=      5-min Rain = 0
KCR2 202030Z 17011KT 18/M01 A3013 RMK A01 T01751013  RH  028%=      5-min Rain = 0
KCR2 202031Z 18012KT 18/M01 A3013 RMK A01 T01751014  RH  028%=      5-min Rain = 0
KCR2 202032Z 19013KT 18/M02 A3013 RMK A01 T01751016  RH  027%=      5-min Rain = 0
KCR2 202033Z 18010KT 18/M02 A3013 RMK A01 T01751019  RH  027%=      5-min Rain = 0
KCR2 202034Z 19008KT 17/M02 A3013 RMK A01 T01741018  RH  027%=      5-min Rain = 0
KCR2 202035Z 19007KT 18/M02 A3013 RMK A01 T01751015  RH  027%=      5-min Rain = 0
KCR2 202036Z 19012KT 18/M01 A3013 RMK A01 T01771012  RH  028%=      5-min Rain = 0
KCR2 202037Z 19010KT 18/M02 A3013 RMK A01 T01781016  RH  027%=      5-min Rain = 0
KCR2 202038Z 18012KT 18/M01 A3013 RMK A01 T01781014  RH  027%=      5-min Rain = 0
KCR2 202039Z 18010KT 18/M02 A3013 RMK A01 T01781015  RH  027%=      5-min Rain = 0
KCR2 202040Z 18009KT 18/M01 A3013 RMK A01 T01781012  RH  027%=      5-min Rain = 0
KCR2 202041Z 17012KT 18/M01 A3013 RMK A01 T01791012  RH  027%=      5-min Rain = 0
KCR2 202042Z 17010KT 18/M02 A3013 RMK A01 T01781015  RH  027%=      5-min Rain = 0
KCR2 202043Z 17011KT 18/M02 A3013 RMK A01 T01781018  RH  026%=      5-min Rain = 0
KCR2 202044Z 17010KT 18/M02 A3013 RMK A01 T01771015  RH  027%=      5-min Rain = 0
KCR2 202045Z 17009KT 18/M02 A3013 RMK A01 T01771017  RH  027%=      5-min Rain = 0
KCR2 202046Z 17011KT 18/M02 A3013 RMK A01 T01771015  RH  027%=      5-min Rain = 0
KCR2 202047Z 17011KT 18/M02 A3013 RMK A01 T01771015  RH  027%=      5-min Rain = 0
KCR2 202048Z 17009KT 18/M02 A3013 RMK A01 T01771016  RH  027%=      5-min Rain = 0
KCR2 202049Z 17009KT 18/M01 A3013 RMK A01 T01771014  RH  027%=      5-min Rain = 0
KCR2 202050Z 18011KT 18/M02 A3013 RMK A01 T01771017  RH  027%=      5-min Rain = 0
KCR2 202051Z 19008KT 18/M02 A3013 RMK A01 T01771021  RH  026%=      5-min Rain = 0
KCR2 202052Z 18007KT 18/M02 A3013 RMK A01 T01771019  RH  026%=      5-min Rain = 0
KCR2 202053Z 18009KT 18/M01 A3013 RMK A01 T01791014  RH  027%=      5-min Rain = 0
KCR2 202054Z 19010KT 18/M01 A3013 RMK A01 T01821012  RH  027%=      5-min Rain = 0
KCR2 202055Z 18010KT 18/M01 A3013 RMK A01 T01821012  RH  027%=      5-min Rain = 0
KCR2 202056Z 17010KT 18/M02 A3013 RMK A01 T01811017  RH  026%=      5-min Rain = 0
KCR2 202057Z 17010KT 18/M02 A3013 RMK A01 T01791019  RH  026%=      5-min Rain = 0
KCR2 202058Z 19008KT 18/M02 A3013 RMK A01 T01781019  RH  026%=      5-min Rain = 0
KCR2 202059Z 18007KT 18/M02 A3013 RMK A01 T01781019  RH  026%=      5-min Rain = 0
KCR2 202100Z 17006KT 18/M01 A3013 RMK A01 T01801014  RH  027%=      5-min Rain = 0
KCR2 202101Z 18007KT 18/M01 A3013 RMK A01 T01831014  RH  026%=      5-min Rain = 0
KCR2 202102Z 18011KT 18/M02 A3012 RMK A01 T01831015  RH  026%=      5-min Rain = 0
KCR2 202103Z 19010KT 18/M02 A3012 RMK A01 T01821016  RH  026%=      5-min Rain = 0
KCR2 202104Z 18008KT 18/M02 A3013 RMK A01 T01811016  RH  026%=      5-min Rain = 0
KCR2 202105Z 18008KT 18/M01 A3012 RMK A01 T01811014  RH  027%=      5-min Rain = 0
KCR2 202106Z 18011KT 18/M01 A3012 RMK A01 T01821012  RH  027%=      5-min Rain = 0
KCR2 202107Z 18011KT 19/M02 A3012 RMK A01 T01851016  RH  026%=      5-min Rain = 0
KCR2 202108Z 18010KT 19/M02 A3012 RMK A01 T01851019  RH  025%=      5-min Rain = 0
KCR2 202109Z 19009KT 18/M02 A3012 RMK A01 T01841019  RH  025%=      5-min Rain = 0
KCR2 202110Z 19008KT 18/M02 A3012 RMK A01 T01831017  RH  026%=      5-min Rain = 0
KCR2 202111Z 19008KT 19/M02 A3012 RMK A01 T01851015  RH  026%=      5-min Rain = 0
KCR2 202112Z 21008KT 19/M01 A3012 RMK A01 T01871013  RH  026%=      5-min Rain = 0
KCR2 202113Z 20009KT 19/M02 A3012 RMK A01 T01891019  RH  024%=      5-min Rain = 0
KCR2 202114Z 20007KT 19/M02 A3012 RMK A01 T01871022  RH  024%=      5-min Rain = 0
KCR2 202115Z 19007KT 19/M02 A3012 RMK A01 T01861020  RH  025%=      5-min Rain = 0
KCR2 202116Z 18008KT 19/M02 A3012 RMK A01 T01861018  RH  025%=      5-min Rain = 0
KCR2 202117Z 19009KT 19/M02 A3012 RMK A01 T01861019  RH  025%=      5-min Rain = 0
KCR2 202118Z 19009KT 19/M02 A3012 RMK A01 T01861019  RH  025%=      5-min Rain = 0
KCR2 202119Z 19006KT 19/M02 A3012 RMK A01 T01851017  RH  025%=      5-min Rain = 0
KCR2 202120Z 19005KT 19/M02 A3012 RMK A01 T01861019  RH  025%=      5-min Rain = 0
KCR2 202121Z 20009KT 19/M02 A3012 RMK A01 T01861017  RH  025%=      5-min Rain = 0
KCR2 202122Z 20005KT 19/M02 A3012 RMK A01 T01861020  RH  025%=      5-min Rain = 0
KCR2 202123Z 19008KT 19/M02 A3012 RMK A01 T01861016  RH  025%=      5-min Rain = 0
KCR2 202124Z 19012KT 19/M02 A3012 RMK A01 T01881015  RH  025%=      5-min Rain = 0
KCR2 202125Z 20012KT 19/M02 A3012 RMK A01 T01881018  RH  025%=      5-min Rain = 0
KCR2 202126Z 20010KT 19/M02 A3012 RMK A01 T01881018  RH  025%=      5-min Rain = 0
KCR2 202127Z 19007KT 19/M02 A3012 RMK A01 T01881020  RH  024%=      5-min Rain = 0
KCR2 202128Z 20004KT 19/M03 A3012 RMK A01 T01851025  RH  024%=      5-min Rain = 0
KCR2 202129Z 16006KT 18/M02 A3012 RMK A01 T01841020  RH  025%=      5-min Rain = 0
KCR2 202130Z 16007KT 19/M02 A3012 RMK A01 T01851020  RH  025%=      5-min Rain = 0
KCR2 202131Z 17011KT 19/M02 A3012 RMK A01 T01861018  RH  025%=      5-min Rain = 0
KCR2 202132Z 18012KT 19/M02 A3012 RMK A01 T01871021  RH  024%=      5-min Rain = 0
KCR2 202133Z 19009KT 19/M02 A3012 RMK A01 T01851023  RH  024%=      5-min Rain = 0
KCR2 202134Z 20006KT 19/M02 A3012 RMK A01 T01851019  RH  025%=      5-min Rain = 0
KCR2 202135Z 18006KT 19/M02 A3012 RMK A01 T01861020  RH  025%=      5-min Rain = 0
KCR2 202136Z 19010KT 19/M02 A3012 RMK A01 T01861021  RH  024%=      5-min Rain = 0
KCR2 202137Z 20007KT 19/M02 A3012 RMK A01 T01861023  RH  024%=      5-min Rain = 0
KCR2 202138Z 20008KT 19/M02 A3012 RMK A01 T01861020  RH  025%=      5-min Rain = 0
KCR2 202139Z 20007KT 19/M02 A3011 RMK A01 T01881016  RH  025%=      5-min Rain = 0
KCR2 202140Z 19008KT 19/M02 A3011 RMK A01 T01891015  RH  025%=      5-min Rain = 0
KCR2 202141Z 19010KT 19/M02 A3011 RMK A01 T01891018  RH  024%=      5-min Rain = 0
KCR2 202142Z 18007KT 19/M02 A3011 RMK A01 T01871021  RH  024%=      5-min Rain = 0
KCR2 202143Z 18008KT 19/M02 A3011 RMK A01 T01851020  RH  025%=      5-min Rain = 0
KCR2 202144Z 17013KT 18/M02 A3011 RMK A01 T01841017  RH  026%=      5-min Rain = 0
KCR2 202145Z 16010KT 18/M01 A3011 RMK A01 T01831013  RH  027%=      5-min Rain = 0
KCR2 202146Z 16010KT 18/M01 A3011 RMK A01 T01821012  RH  027%=      5-min Rain = 0
KCR2 202147Z 16011KT 18/M01 A3011 RMK A01 T01821013  RH  027%=      5-min Rain = 0
KCR2 202148Z 16009KT 18/M01 A3011 RMK A01 T01821012  RH  027%=      5-min Rain = 0
KCR2 202149Z 17008KT 18/M01 A3011 RMK A01 T01821011  RH  027%=      5-min Rain = 0
KCR2 202150Z 18010KT 18/M01 A3011 RMK A01 T01821012  RH  027%=      5-min Rain = 0
KCR2 202151Z 19007KT 18/M02 A3011 RMK A01 T01821018  RH  026%=      5-min Rain = 0
KCR2 202152Z 19007KT 18/M02 A3011 RMK A01 T01831018  RH  025%=      5-min Rain = 0
KCR2 202153Z 19009KT 18/M02 A3011 RMK A01 T01831017  RH  026%=      5-min Rain = 0
KCR2 202154Z 19011KT 18/M02 A3011 RMK A01 T01831016  RH  026%=      5-min Rain = 0
KCR2 202155Z 19009KT 18/M02 A3011 RMK A01 T01841020  RH  025%=      5-min Rain = 0
KCR2 202156Z 18009KT 19/M02 A3011 RMK A01 T01851018  RH  025%=      5-min Rain = 0
KCR2 202157Z 18008KT 19/M02 A3011 RMK A01 T01861016  RH  025%=      5-min Rain = 0
KCR2 202158Z 19008KT 19/M02 A3011 RMK A01 T01861015  RH  026%=      5-min Rain = 0
KCR2 202159Z 17012KT 19/M01 A3011 RMK A01 T01861011  RH  026%=      5-min Rain = 0
KCR2 202200Z 17010KT 19/M01 A3011 RMK A01 T01871012  RH  026%=      5-min Rain = 0
KCR2 202201Z 18012KT 19/M01 A3011 RMK A01 T01861011  RH  026%=      5-min Rain = 0
KCR2 202202Z 19010KT 19/M01 A3011 RMK A01 T01861012  RH  026%=      5-min Rain = 0
KCR2 202203Z 19010KT 19/M01 A3011 RMK A01 T01861014  RH  026%=      5-min Rain = 0
KCR2 202204Z 18007KT 19/M01 A3011 RMK A01 T01851014  RH  026%=      5-min Rain = 0
KCR2 202205Z 17009KT 19/M01 A3011 RMK A01 T01861011  RH  026%=      5-min Rain = 0
KCR2 202206Z 17009KT 19/M01 A3011 RMK A01 T01871013  RH  026%=      5-min Rain = 0
KCR2 202207Z 18009KT 19/M01 A3011 RMK A01 T01871014  RH  026%=      5-min Rain = 0
KCR2 202208Z 18010KT 19/M01 A3011 RMK A01 T01871013  RH  026%=      5-min Rain = 0
KCR2 202209Z 19009KT 19/M01 A3011 RMK A01 T01871013  RH  026%=      5-min Rain = 0
KCR2 202210Z 20008KT 19/M02 A3011 RMK A01 T01881016  RH  025%=      5-min Rain = 0
KCR2 202211Z 20009KT 19/M01 A3011 RMK A01 T01891014  RH  025%=      5-min Rain = 0
KCR2 202212Z 20008KT 19/M02 A3011 RMK A01 T01891018  RH  025%=      5-min Rain = 0
KCR2 202213Z 18009KT 19/M02 A3011 RMK A01 T01891016  RH  025%=      5-min Rain = 0
KCR2 202214Z 18008KT 19/M02 A3011 RMK A01 T01891017  RH  025%=      5-min Rain = 0
KCR2 202215Z 19010KT 19/M02 A3011 RMK A01 T01891018  RH  025%=      5-min Rain = 0
KCR2 202216Z 18010KT 19/M02 A3011 RMK A01 T01891015  RH  025%=      5-min Rain = 0
KCR2 202217Z 18011KT 19/M02 A3011 RMK A01 T01901015  RH  025%=      5-min Rain = 0
KCR2 202218Z 18010KT 19/M02 A3011 RMK A01 T01901015  RH  025%=      5-min Rain = 0
KCR2 202219Z 18009KT 19/M01 A3011 RMK A01 T01901014  RH  025%=      5-min Rain = 0
KCR2 202220Z 17012KT 19/M01 A3011 RMK A01 T01901011  RH  026%=      5-min Rain = 0
KCR2 202221Z 17012KT 19/M01 A3011 RMK A01 T01901012  RH  026%=      5-min Rain = 0
KCR2 202222Z 17012KT 19/M01 A3011 RMK A01 T01901013  RH  025%=      5-min Rain = 0
KCR2 202223Z 18012KT 19/M01 A3011 RMK A01 T01891012  RH  026%=      5-min Rain = 0
KCR2 202224Z 17011KT 19/M01 A3011 RMK A01 T01881012  RH  026%=      5-min Rain = 0
KCR2 202225Z 16009KT 19/M01 A3011 RMK A01 T01881010  RH  026%=      5-min Rain = 0
KCR2 202226Z 18010KT 19/M01 A3011 RMK A01 T01891010  RH  026%=      5-min Rain = 0
KCR2 202227Z 17010KT 19/M01 A3011 RMK A01 T01891013  RH  025%=      5-min Rain = 0
KCR2 202228Z 17011KT 19/M01 A3011 RMK A01 T01881012  RH  026%=      5-min Rain = 0
KCR2 202229Z 17009KT 19/M01 A3011 RMK A01 T01871010  RH  026%=      5-min Rain = 0
KCR2 202230Z 16008KT 19/M01 A3011 RMK A01 T01861009  RH  027%=      5-min Rain = 0
KCR2 202231Z 16009KT 19/M01 A3011 RMK A01 T01871009  RH  026%=      5-min Rain = 0
KCR2 202232Z 17010KT 19/M01 A3011 RMK A01 T01881010  RH  026%=      5-min Rain = 0
KCR2 202233Z 18011KT 19/M01 A3011 RMK A01 T01891014  RH  025%=      5-min Rain = 0
KCR2 202234Z 17009KT 19/M02 A3011 RMK A01 T01891015  RH  025%=      5-min Rain = 0
KCR2 202235Z 17010KT 19/M01 A3011 RMK A01 T01891013  RH  025%=      5-min Rain = 0
KCR2 202236Z 16010KT 19/M01 A3011 RMK A01 T01901011  RH  026%=      5-min Rain = 0
KCR2 202237Z 17009KT 19/M01 A3011 RMK A01 T01891010  RH  026%=      5-min Rain = 0
KCR2 202238Z 18010KT 19/M01 A3011 RMK A01 T01891008  RH  026%=      5-min Rain = 0
KCR2 202239Z 18010KT 19/M01 A3011 RMK A01 T01891010  RH  026%=      5-min Rain = 0
KCR2 202240Z 17011KT 19/M01 A3011 RMK A01 T01891012  RH  026%=      5-min Rain = 0
KCR2 202241Z 17012KT 19/M01 A3011 RMK A01 T01881011  RH  026%=      5-min Rain = 0
KCR2 202242Z 17010KT 19/M01 A3011 RMK A01 T01891011  RH  026%=      5-min Rain = 0
KCR2 202243Z 17011KT 19/M01 A3011 RMK A01 T01891010  RH  026%=      5-min Rain = 0
KCR2 202244Z 18010KT 19/M01 A301 RMK A01 T01881010  RH  026%=      5-min Rain = 0
KCR2 202245Z 17008KT 19/M01 A301 RMK A01 T01891007  RH  027%=      5-min Rain = 0
KCR2 202246Z 17009KT 19/M01 A301 RMK A01 T01901006  RH  027%=      5-min Rain = 0
KCR2 202247Z 16009KT 19/M01 A301 RMK A01 T01911005  RH  027%=      5-min Rain = 0
KCR2 202248Z 15011KT 19/M01 A301 RMK A01 T01911008  RH  026%=      5-min Rain = 0
KCR2 202249Z 16010KT 19/M01 A301 RMK A01 T01901008  RH  026%=      5-min Rain = 0
KCR2 202250Z 16010KT 19/M01 A301 RMK A01 T01901007  RH  026%=      5-min Rain = 0
KCR2 202251Z 16009KT 19/M01 A301 RMK A01 T01891008  RH  026%=      5-min Rain = 0
KCR2 202252Z 16008KT 19/M01 A301 RMK A01 T01881008  RH  027%=      5-min Rain = 0
KCR2 202253Z 16007KT 19/M01 A301 RMK A01 T01881007  RH  027%=      5-min Rain = 0
KCR2 202254Z 16009KT 19/M01 A301 RMK A01 T01881005  RH  027%=      5-min Rain = 0
KCR2 202255Z 16010KT 19/M01 A301 RMK A01 T01891007  RH  027%=      5-min Rain = 0
KCR2 202256Z 16010KT 19/M01 A301 RMK A01 T01891008  RH  026%=      5-min Rain = 0
KCR2 202257Z 17010KT 19/M01 A301 RMK A01 T01891006  RH  027%=      5-min Rain = 0
KCR2 202258Z 16011KT 19/M01 A301 RMK A01 T01891007  RH  027%=      5-min Rain = 0
KCR2 202259Z 16011KT 19/M01 A301 RMK A01 T01891008  RH  026%=      5-min Rain = 0
KCR2 202300Z 17010KT 19/M01 A301 RMK A01 T01891007  RH  027%=      5-min Rain = 0
KCR2 202301Z 17012KT 19/M01 A301 RMK A01 T01891007  RH  027%=      5-min Rain = 0
KCR2 202302Z 17013KT 19/M01 A301 RMK A01 T01891008  RH  026%=      5-min Rain = 0
KCR2 202303Z 16010KT 19/M01 A301 RMK A01 T01891008  RH  027%=      5-min Rain = 0
KCR2 202304Z 16010KT 19/M01 A301 RMK A01 T01881007  RH  027%=      5-min Rain = 0
KCR2 202305Z 16012KT 19/M01 A301 RMK A01 T01891006  RH  027%=      5-min Rain = 0
KCR2 202306Z 16011KT 19/M01 A301 RMK A01 T01881008  RH  027%=      5-min Rain = 0
KCR2 202307Z 16010KT 19/M01 A301 RMK A01 T01881008  RH  027%=      5-min Rain = 0
KCR2 202308Z 17012KT 19/M01 A301 RMK A01 T01881007  RH  027%=      5-min Rain = 0
KCR2 202309Z 16012KT 19/M01 A301 RMK A01 T01871008  RH  027%=      5-min Rain = 0
KCR2 202310Z 17011KT 19/M01 A301 RMK A01 T01871007  RH  027%=      5-min Rain = 0
KCR2 202311Z 16011KT 19/M01 A301 RMK A01 T01871009  RH  027%=      5-min Rain = 0
KCR2 202312Z 17010KT 19/M01 A301 RMK A01 T01861009  RH  027%=      5-min Rain = 0
KCR2 202313Z 16010KT 19/M01 A301 RMK A01 T01861007  RH  027%=      5-min Rain = 0
KCR2 202314Z 16010KT 19/M01 A301 RMK A01 T01861008  RH  027%=      5-min Rain = 0
KCR2 202315Z 17011KT 19/M01 A301 RMK A01 T01861008  RH  027%=      5-min Rain = 0
KCR2 202316Z 17012KT 19/M01 A301 RMK A01 T01861011  RH  026%=      5-min Rain = 0
KCR2 202317Z 16013KT 19/M01 A301 RMK A01 T01861010  RH  026%=      5-min Rain = 0
KCR2 202318Z 17013KT 19/M01 A301 RMK A01 T01861010  RH  026%=      5-min Rain = 0
KCR2 202319Z 17012KT 19/M01 A301 RMK A01 T01861011  RH  026%=      5-min Rain = 0
KCR2 202320Z 16011KT 19/M01 A3009 RMK A01 T01861010  RH  026%=      5-min Rain = 0
KCR2 202321Z 16010KT 19/M01 A301 RMK A01 T01861009  RH  027%=      5-min Rain = 0
KCR2 202322Z 15011KT 19/M01 A3009 RMK A01 T01861009  RH  027%=      5-min Rain = 0
KCR2 202323Z 16010KT 19/M01 A301 RMK A01 T01861008  RH  027%=      5-min Rain = 0
KCR2 202324Z 16011KT 19/M01 A3009 RMK A01 T01851010  RH  027%=      5-min Rain = 0
KCR2 202325Z 16012KT 19/M01 A3009 RMK A01 T01851011  RH  027%=      5-min Rain = 0
KCR2 202326Z 16011KT 19/M01 A3009 RMK A01 T01851012  RH  026%=      5-min Rain = 0
KCR2 202327Z 16008KT 19/M01 A3009 RMK A01 T01851012  RH  026%=      5-min Rain = 0
KCR2 202328Z 15009KT 19/M01 A3009 RMK A01 T01851009  RH  027%=      5-min Rain = 0
KCR2 202329Z 14009KT 18/M01 A3009 RMK A01 T01841010  RH  027%=      5-min Rain = 0
KCR2 202330Z 15010KT 18/M01 A3009 RMK A01 T01841008  RH  027%=      5-min Rain = 0
KCR2 202331Z 15009KT 18/M01 A3009 RMK A01 T01841008  RH  027%=      5-min Rain = 0
KCR2 202332Z 15010KT 18/M01 A3009 RMK A01 T01841006  RH  028%=      5-min Rain = 0
KCR2 202333Z 16010KT 18/M01 A3009 RMK A01 T01831008  RH  028%=      5-min Rain = 0
KCR2 202334Z 16010KT 18/M01 A3009 RMK A01 T01821009  RH  027%=      5-min Rain = 0
KCR2 202335Z 16011KT 18/M01 A3009 RMK A01 T01821011  RH  027%=      5-min Rain = 0
KCR2 202336Z 16009KT 18/M01 A3009 RMK A01 T01821010  RH  027%=      5-min Rain = 0
KCR2 202337Z 15008KT 18/M01 A3009 RMK A01 T01821008  RH  028%=      5-min Rain = 0
KCR2 202338Z 16008KT 18/M01 A3009 RMK A01 T01811009  RH  028%=      5-min Rain = 0
KCR2 202339Z 15007KT 18/M01 A3009 RMK A01 T01811009  RH  028%=      5-min Rain = 0
KCR2 202340Z 15008KT 18/M01 A3009 RMK A01 T01801006  RH  028%=      5-min Rain = 0
KCR2 202341Z 15008KT 18/M01 A3009 RMK A01 T01791007  RH  028%=      5-min Rain = 0
KCR2 202342Z 15010KT 18/M01 A3009 RMK A01 T01791007  RH  028%=      5-min Rain = 0
KCR2 202343Z 15010KT 18/M01 A3009 RMK A01 T01791008  RH  028%=      5-min Rain = 0
KCR2 202344Z 15010KT 18/M01 A3009 RMK A01 T01781007  RH  028%=      5-min Rain = 0
KCR2 202345Z 15009KT 18/M01 A3009 RMK A01 T01771008  RH  028%=      5-min Rain = 0
KCR2 202346Z 15009KT 18/M01 A3009 RMK A01 T01761007  RH  029%=      5-min Rain = 0
KCR2 202347Z 15010KT 18/M01 A3009 RMK A01 T01751008  RH  029%=      5-min Rain = 0
KCR2 202348Z 15010KT 17/M01 A3009 RMK A01 T01741010  RH  029%=      5-min Rain = 0
KCR2 202349Z 15009KT 18/M01 A3009 RMK A01 T01751009  RH  029%=      5-min Rain = 0
KCR2 202350Z 15009KT 18/M01 A3009 RMK A01 T01751009  RH  029%=      5-min Rain = 0
KCR2 202351Z 14008KT 17/M01 A3009 RMK A01 T01741009  RH  029%=      5-min Rain = 0
KCR2 202352Z 15007KT 17/M01 A3009 RMK A01 T01721007  RH  029%=      5-min Rain = 0
KCR2 202353Z 15008KT 17/M01 A3009 RMK A01 T01701008  RH  030%=      5-min Rain = 0
KCR2 202354Z 15010KT 17/M01 A3009 RMK A01 T01691009  RH  030%=      5-min Rain = 0
KCR2 202355Z 16010KT 17/M01 A3009 RMK A01 T01691011  RH  029%=      5-min Rain = 0
KCR2 202356Z 16011KT 17/M01 A3009 RMK A01 T01701012  RH  029%=      5-min Rain = 0
KCR2 202357Z 16013KT 17/M01 A3009 RMK A01 T01711013  RH  029%=      5-min Rain = 0
KCR2 202358Z 16012KT 17/M01 A3009 RMK A01 T01711013  RH  028%=      5-min Rain = 0
KCR2 202359Z 16010KT 17/M01 A3009 RMK A01 T01721013  RH  028%=      5-min Rain = 0
KCR2 210000Z 16010KT 17/M01 A3009 RMK A01 T01701013  RH  029%=      5-min Rain = 0
KCR2 210001Z 16012KT 17/M01 A3009 RMK A01 T01701013  RH  029%=      5-min Rain = 0
KCR2 210002Z 16011KT 17/M01 A3009 RMK A01 T01691014  RH  029%=      5-min Rain = 0
KCR2 210003Z 16011KT 17/M01 A3009 RMK A01 T01691014  RH  029%=      5-min Rain = 0
KCR2 210004Z 16010KT 17/M01 A3009 RMK A01 T01681014  RH  029%=      5-min Rain = 0
KCR2 210005Z 16011KT 17/M01 A3009 RMK A01 T01671014  RH  029%=      5-min Rain = 0
KCR2 210006Z 17012KT 17/M01 A3009 RMK A01 T01671014  RH  029%=      5-min Rain = 0
KCR2 210007Z 16011KT 17/M02 A3009 RMK A01 T01671015  RH  029%=      5-min Rain = 0
KCR2 210008Z 16012KT 17/M02 A3009 RMK A01 T01671015  RH  029%=      5-min Rain = 0
KCR2 210009Z 16013KT 17/M02 A3009 RMK A01 T01661015  RH  029%=      5-min Rain = 0
KCR2 210010Z 16011KT 17/M02 A3009 RMK A01 T01661016  RH  029%=      5-min Rain = 0
KCR2 210011Z 16009KT 17/M02 A3009 RMK A01 T01651015  RH  029%=      5-min Rain = 0
KCR2 210012Z 16011KT 16/M02 A3009 RMK A01 T01631015  RH  029%=      5-min Rain = 0
KCR2 210013Z 16010KT 16/M02 A3009 RMK A01 T01631016  RH  029%=      5-min Rain = 0
KCR2 210014Z 16011KT 16/M02 A3009 RMK A01 T01631015  RH  030%=      5-min Rain = 0
KCR2 210015Z 16010KT 16/M02 A3008 RMK A01 T01621016  RH  030%=      5-min Rain = 0
KCR2 210016Z 16010KT 16/M02 A3008 RMK A01 T01621015  RH  030%=      5-min Rain = 0
KCR2 210017Z 16010KT 16/M02 A3008 RMK A01 T01601015  RH  030%=      5-min Rain = 0
KCR2 210018Z 16011KT 16/M02 A3008 RMK A01 T01601015  RH  030%=      5-min Rain = 0
KCR2 210019Z 16010KT 16/M02 A3008 RMK A01 T01591015  RH  030%=      5-min Rain = 0
KCR2 210020Z 16009KT 16/M02 A3008 RMK A01 T01581015  RH  031%=      5-min Rain = 0
KCR2 210021Z 15009KT 16/M02 A3008 RMK A01 T01561015  RH  031%=      5-min Rain = 0
KCR2 210022Z 16009KT 16/M01 A3008 RMK A01 T01561014  RH  031%=      5-min Rain = 0
KCR2 210023Z 15010KT 15/M02 A3008 RMK A01 T01541015  RH  031%=      5-min Rain = 0
KCR2 210024Z 15009KT 15/M02 A3008 RMK A01 T01541015  RH  031%=      5-min Rain = 0
KCR2 210025Z 15009KT 16/M01 A3008 RMK A01 T01551014  RH  031%=      5-min Rain = 0
KCR2 210026Z 15009KT 16/M01 A3008 RMK A01 T01551014  RH  031%=      5-min Rain = 0
KCR2 210027Z 16008KT 15/M01 A3008 RMK A01 T01541014  RH  032%=      5-min Rain = 0
KCR2 210028Z 16010KT 15/M02 A3008 RMK A01 T01531015  RH  032%=      5-min Rain = 0
KCR2 210029Z 15009KT 15/M02 A3008 RMK A01 T01541015  RH  032%=      5-min Rain = 0
KCR2 210030Z 16009KT 15/M01 A3008 RMK A01 T01531014  RH  032%=      5-min Rain = 0
KCR2 210031Z 15011KT 15/M02 A3008 RMK A01 T01531015  RH  032%=      5-min Rain = 0
KCR2 210032Z 15008KT 15/M02 A3008 RMK A01 T01531015  RH  032%=      5-min Rain = 0
KCR2 210033Z 15009KT 15/M02 A3008 RMK A01 T01521015  RH  032%=      5-min Rain = 0
KCR2 210034Z 15009KT 15/M02 A3008 RMK A01 T01511015  RH  032%=      5-min Rain = 0
KCR2 210035Z 15009KT 15/M02 A3008 RMK A01 T01501016  RH  032%=      5-min Rain = 0
KCR2 210036Z 15010KT 15/M02 A3008 RMK A01 T01491016  RH  032%=      5-min Rain = 0
KCR2 210037Z 15010KT 15/M02 A3008 RMK A01 T01491017  RH  032%=      5-min Rain = 0
KCR2 210038Z 15009KT 15/M02 A3008 RMK A01 T01511016  RH  032%=      5-min Rain = 0
KCR2 210039Z 15010KT 15/M02 A3009 RMK A01 T01501016  RH  032%=      5-min Rain = 0
KCR2 210040Z 15010KT 15/M02 A3009 RMK A01 T01501017  RH  032%=      5-min Rain = 0
KCR2 210041Z 15009KT 15/M02 A3009 RMK A01 T01501017  RH  032%=      5-min Rain = 0
KCR2 210042Z 16010KT 15/M02 A3009 RMK A01 T01491017  RH  032%=      5-min Rain = 0
KCR2 210043Z 16010KT 15/M02 A3009 RMK A01 T01491017  RH  032%=      5-min Rain = 0
KCR2 210044Z 16011KT 15/M02 A3008 RMK A01 T01481017  RH  032%=      5-min Rain = 0
KCR2 210045Z 15011KT 15/M02 A3008 RMK A01 T01481017  RH  032%=      5-min Rain = 0
KCR2 210046Z 16011KT 15/M02 A3008 RMK A01 T01491017  RH  032%=      5-min Rain = 0
KCR2 210047Z 16011KT 15/M02 A3008 RMK A01 T01501018  RH  032%=      5-min Rain = 0
KCR2 210048Z 17013KT 15/M02 A3008 RMK A01 T01501018  RH  031%=      5-min Rain = 0
KCR2 210049Z 16012KT 15/M02 A3008 RMK A01 T01501018  RH  031%=      5-min Rain = 0
KCR2 210050Z 16013KT 15/M02 A3008 RMK A01 T01501018  RH  031%=      5-min Rain = 0
KCR2 210051Z 16014KT 15/M02 A3008 RMK A01 T01501018  RH  031%=      5-min Rain = 0
KCR2 210052Z 16012KT 15/M02 A3008 RMK A01 T01511018  RH  031%=      5-min Rain = 0
KCR2 210053Z 16011KT 15/M02 A3008 RMK A01 T01511018  RH  031%=      5-min Rain = 0
KCR2 210054Z 16013KT 15/M02 A3008 RMK A01 T01491018  RH  032%=      5-min Rain = 0
KCR2 210055Z 16012KT 15/M02 A3008 RMK A01 T01491018  RH  032%=      5-min Rain = 0
KCR2 210056Z 15012KT 15/M02 A3009 RMK A01 T01491017  RH  032%=      5-min Rain = 0
KCR2 210057Z 16013KT 15/M02 A3009 RMK A01 T01471018  RH  032%=      5-min Rain = 0
KCR2 210058Z 16013KT 15/M02 A3009 RMK A01 T01481018  RH  032%=      5-min Rain = 0
KCR2 210059Z 16012KT 15/M02 A3009 RMK A01 T01481018  RH  032%=      5-min Rain = 0
KCR2 210100Z 16010KT 15/M02 A3009 RMK A01 T01471017  RH  032%=      5-min Rain = 0
KCR2 210101Z 16012KT 15/M02 A3009 RMK A01 T01461018  RH  032%=      5-min Rain = 0
KCR2 210102Z 16012KT 15/M02 A3009 RMK A01 T01461017  RH  032%=      5-min Rain = 0
KCR2 210103Z 16011KT 15/M02 A3009 RMK A01 T01461017  RH  032%=      5-min Rain = 0
KCR2 210104Z 16011KT 15/M02 A3009 RMK A01 T01461017  RH  032%=      5-min Rain = 0
KCR2 210105Z 16012KT 15/M02 A3009 RMK A01 T01451017  RH  033%=      5-min Rain = 0
KCR2 210106Z 16011KT 15/M02 A3009 RMK A01 T01451017  RH  033%=      5-min Rain = 0
KCR2 210107Z 16013KT 15/M02 A3009 RMK A01 T01451017  RH  033%=      5-min Rain = 0
KCR2 210108Z 16011KT 15/M02 A3009 RMK A01 T01451017  RH  033%=      5-min Rain = 0
KCR2 210109Z 16013KT 14/M02 A3009 RMK A01 T01441017  RH  033%=      5-min Rain = 0
KCR2 210110Z 16012KT 14/M02 A3009 RMK A01 T01441017  RH  033%=      5-min Rain = 0
KCR2 210111Z 16013KT 14/M02 A3009 RMK A01 T01441017  RH  033%=      5-min Rain = 0
KCR2 210112Z 16014KT 14/M02 A3009 RMK A01 T01441017  RH  033%=      5-min Rain = 0
KCR2 210113Z 16012G17KT 14/M02 A3009 RMK A01 T01441017  RH  033%=      5-min Rain = 0
KCR2 210114Z 16012KT 14/M02 A3009 RMK A01 T01431016  RH  033%=      5-min Rain = 0
KCR2 210115Z 16012KT 14/M02 A3009 RMK A01 T01421016  RH  033%=      5-min Rain = 0
KCR2 210116Z 16014G19KT 14/M02 A3009 RMK A01 T01421016  RH  034%=      5-min Rain = 0
KCR2 210117Z 16013KT 14/M02 A3009 RMK A01 T01411016  RH  034%=      5-min Rain = 0
KCR2 210118Z 16012KT 14/M02 A3009 RMK A01 T01411015  RH  034%=      5-min Rain = 0
KCR2 210119Z 16013KT 14/M02 A3009 RMK A01 T01401015  RH  034%=      5-min Rain = 0
KCR2 210120Z 16011KT 14/M02 A3009 RMK A01 T01401015  RH  034%=      5-min Rain = 0
KCR2 210121Z 16013KT 14/M01 A3009 RMK A01 T01401014  RH  034%=      5-min Rain = 0
KCR2 210122Z 16013KT 14/M01 A3009 RMK A01 T01391014  RH  035%=      5-min Rain = 0
KCR2 210123Z 16011KT 14/M01 A3009 RMK A01 T01391014  RH  035%=      5-min Rain = 0
KCR2 210124Z 16013KT 14/M01 A3009 RMK A01 T01381014  RH  035%=      5-min Rain = 0
KCR2 210125Z 17014KT 14/M01 A3009 RMK A01 T01371014  RH  035%=      5-min Rain = 0
KCR2 210126Z 16014KT 14/M01 A3009 RMK A01 T01381013  RH  035%=      5-min Rain = 0
KCR2 210127Z 16014KT 14/M01 A3009 RMK A01 T01381013  RH  035%=      5-min Rain = 0
KCR2 210128Z 16013KT 14/M01 A3009 RMK A01 T01371013  RH  036%=      5-min Rain = 0
KCR2 210129Z 17013KT 14/M01 A3009 RMK A01 T01371012  RH  036%=      5-min Rain = 0
KCR2 210130Z 16015KT 14/M01 A3009 RMK A01 T01361012  RH  036%=      5-min Rain = 0
KCR2 210131Z 16014KT 14/M01 A3009 RMK A01 T01361012  RH  036%=      5-min Rain = 0
KCR2 210132Z 17016KT 14/M01 A3009 RMK A01 T01361012  RH  036%=      5-min Rain = 0
KCR2 210133Z 17015KT 14/M01 A3009 RMK A01 T01361012  RH  036%=      5-min Rain = 0
KCR2 210134Z 17014KT 14/M01 A3009 RMK A01 T01361013  RH  036%=      5-min Rain = 0
KCR2 210135Z 17013KT 14/M01 A3009 RMK A01 T01361012  RH  036%=      5-min Rain = 0
KCR2 210136Z 17015KT 13/M01 A3009 RMK A01 T01341012  RH  036%=      5-min Rain = 0
KCR2 210137Z 17015KT 13/M01 A3009 RMK A01 T01341013  RH  036%=      5-min Rain = 0
KCR2 210138Z 17015KT 13/M01 A3008 RMK A01 T01331013  RH  036%=      5-min Rain = 0
KCR2 210139Z 17014KT 13/M01 A3009 RMK A01 T01341012  RH  036%=      5-min Rain = 0
KCR2 210140Z 17015KT 13/M01 A3008 RMK A01 T01341012  RH  036%=      5-min Rain = 0
KCR2 210141Z 17015KT 13/M01 A3008 RMK A01 T01341013  RH  036%=      5-min Rain = 0
KCR2 210142Z 18017KT 13/M01 A3008 RMK A01 T01341013  RH  036%=      5-min Rain = 0
KCR2 210143Z 18017KT 13/M01 A3008 RMK A01 T01341013  RH  036%=      5-min Rain = 0
KCR2 210144Z 18015KT 13/M01 A3008 RMK A01 T01341013  RH  036%=      5-min Rain = 0
KCR2 210145Z 18017KT 13/M01 A3008 RMK A01 T01331013  RH  036%=      5-min Rain = 0
KCR2 210146Z 17016KT 13/M01 A3008 RMK A01 T01321013  RH  036%=      5-min Rain = 0
KCR2 210147Z 17016KT 13/M01 A3008 RMK A01 T01331014  RH  036%=      5-min Rain = 0
KCR2 210148Z 18015KT 13/M01 A3008 RMK A01 T01331013  RH  036%=      5-min Rain = 0
KCR2 210149Z 18016KT 13/M01 A3008 RMK A01 T01321014  RH  036%=      5-min Rain = 0
KCR2 210150Z 18016KT 13/M01 A3008 RMK A01 T01321014  RH  036%=      5-min Rain = 0
KCR2 210151Z 18016KT 13/M01 A3008 RMK A01 T01321014  RH  036%=      5-min Rain = 0
KCR2 210152Z 18016KT 13/M01 A3008 RMK A01 T01321014  RH  036%=      5-min Rain = 0
KCR2 210153Z 18016KT 13/M01 A3008 RMK A01 T01321014  RH  036%=      5-min Rain = 0
KCR2 210154Z 18017KT 13/M02 A3008 RMK A01 T01321015  RH  036%=      5-min Rain = 0
KCR2 210155Z 18015KT 13/M02 A3008 RMK A01 T01321015  RH  036%=      5-min Rain = 0
KCR2 210156Z 18018KT 13/M02 A3008 RMK A01 T01311015  RH  036%=      5-min Rain = 0
KCR2 210157Z 17018KT 13/M02 A3008 RMK A01 T01321015  RH  036%=      5-min Rain = 0
KCR2 210158Z 18016KT 13/M02 A3008 RMK A01 T01331015  RH  036%=      5-min Rain = 0
KCR2 210159Z 18016KT 13/M02 A3008 RMK A01 T01321016  RH  036%=      5-min Rain = 0
KCR2 210200Z 18018KT 13/M02 A3008 RMK A01 T01321015  RH  036%=      5-min Rain = 0
KCR2 210201Z 18017KT 13/M02 A3008 RMK A01 T01311016  RH  036%=      5-min Rain = 0
KCR2 210202Z 18014KT 13/M02 A3008 RMK A01 T01311016  RH  036%=      5-min Rain = 0
KCR2 210203Z 18017KT 13/M02 A3008 RMK A01 T01291016  RH  037%=      5-min Rain = 0
KCR2 210204Z 18017KT 13/M02 A3008 RMK A01 T01301016  RH  036%=      5-min Rain = 0
KCR2 210205Z 18015KT 13/M02 A3008 RMK A01 T01301016  RH  036%=      5-min Rain = 0
KCR2 210206Z 18017KT 13/M02 A3008 RMK A01 T01291016  RH  037%=      5-min Rain = 0
KCR2 210207Z 18017KT 13/M02 A3008 RMK A01 T01291016  RH  037%=      5-min Rain = 0
KCR2 210208Z 18017KT 13/M02 A3008 RMK A01 T01291016  RH  036%=      5-min Rain = 0
KCR2 210209Z 19016KT 13/M02 A3008 RMK A01 T01301016  RH  036%=      5-min Rain = 0
KCR2 210210Z 18016KT 13/M02 A3008 RMK A01 T01301016  RH  036%=      5-min Rain = 0
KCR2 210211Z 18015KT 13/M02 A3008 RMK A01 T01301016  RH  036%=      5-min Rain = 0
KCR2 210212Z 18014KT 13/M02 A3008 RMK A01 T01281017  RH  037%=      5-min Rain = 0
KCR2 210213Z 18016KT 13/M02 A3008 RMK A01 T01291016  RH  037%=      5-min Rain = 0
KCR2 210214Z 18015KT 13/M02 A3008 RMK A01 T01281016  RH  037%=      5-min Rain = 0
KCR2 210215Z 18015KT 13/M02 A3008 RMK A01 T01271016  RH  037%=      5-min Rain = 0
KCR2 210216Z 18015KT 13/M02 A3008 RMK A01 T01271016  RH  037%=      5-min Rain = 0
KCR2 210217Z 18015KT 13/M02 A3008 RMK A01 T01261016  RH  037%=      5-min Rain = 0
KCR2 210218Z 18017KT 13/M02 A3008 RMK A01 T01271016  RH  037%=      5-min Rain = 0
KCR2 210219Z 18017KT 13/M02 A3008 RMK A01 T01271016  RH  037%=      5-min Rain = 0
KCR2 210220Z 18016KT 13/M02 A3008 RMK A01 T01271016  RH  037%=      5-min Rain = 0
KCR2 210221Z 18017KT 13/M02 A3008 RMK A01 T01271015  RH  037%=      5-min Rain = 0
KCR2 210222Z 18016KT 13/M02 A3008 RMK A01 T01271016  RH  037%=      5-min Rain = 0
KCR2 210223Z 18019KT 13/M02 A3008 RMK A01 T01261015  RH  037%=      5-min Rain = 0
KCR2 210224Z 18017KT 13/M02 A3008 RMK A01 T01261015  RH  037%=      5-min Rain = 0
KCR2 210225Z 18018KT 13/M02 A3008 RMK A01 T01261015  RH  037%=      5-min Rain = 0
KCR2 210226Z 18018KT 13/M02 A3008 RMK A01 T01271015  RH  037%=      5-min Rain = 0
KCR2 210227Z 18017KT 13/M02 A3008 RMK A01 T01271015  RH  037%=      5-min Rain = 0
KCR2 210228Z 18017KT 13/M01 A3008 RMK A01 T01261014  RH  038%=      5-min Rain = 0
KCR2 210229Z 18016KT 13/M01 A3008 RMK A01 T01261014  RH  038%=      5-min Rain = 0
KCR2 210230Z 18015KT 13/M01 A3007 RMK A01 T01251014  RH  038%=      5-min Rain = 0
KCR2 210231Z 18015G20KT 12/M01 A3007 RMK A01 T01241014  RH  038%=      5-min Rain = 0
KCR2 210232Z 18018KT 12/M01 A3007 RMK A01 T01231014  RH  038%=      5-min Rain = 0
KCR2 210233Z 18016KT 12/M01 A3007 RMK A01 T01241014  RH  038%=      5-min Rain = 0
KCR2 210234Z 18017KT 12/M01 A3007 RMK A01 T01241014  RH  038%=      5-min Rain = 0
KCR2 210235Z 18018KT 12/M01 A3007 RMK A01 T01241013  RH  039%=      5-min Rain = 0
KCR2 210236Z 18017KT 12/M01 A3007 RMK A01 T01241013  RH  039%=      5-min Rain = 0
KCR2 210237Z 18017G22KT 13/M01 A3007 RMK A01 T01251013  RH  039%=      5-min Rain = 0
KCR2 210238Z 18017KT 12/M01 A3007 RMK A01 T01241013  RH  039%=      5-min Rain = 0
KCR2 210239Z 18016KT 13/M01 A3007 RMK A01 T01251012  RH  039%=      5-min Rain = 0
KCR2 210240Z 18016KT 13/M01 A3007 RMK A01 T01251012  RH  039%=      5-min Rain = 0
KCR2 210241Z 18017KT 12/M01 A3007 RMK A01 T01241012  RH  039%=      5-min Rain = 0
KCR2 210242Z 18015KT 12/M01 A3007 RMK A01 T01241012  RH  039%=      5-min Rain = 0
KCR2 210243Z 18015KT 12/M01 A3007 RMK A01 T01231012  RH  039%=      5-min Rain = 0
KCR2 210244Z 18016KT 12/M01 A3007 RMK A01 T01231012  RH  039%=      5-min Rain = 0
KCR2 210245Z 18016KT 12/M01 A3006 RMK A01 T01221012  RH  039%=      5-min Rain = 0
KCR2 210246Z 18016KT 12/M01 A3006 RMK A01 T01231012  RH  039%=      5-min Rain = 0
KCR2 210247Z 18016KT 12/M01 A3007 RMK A01 T01231012  RH  039%=      5-min Rain = 0
KCR2 210248Z 18014KT 12/M01 A3007 RMK A01 T01221012  RH  039%=      5-min Rain = 0
KCR2 210249Z 18015KT 12/M01 A3007 RMK A01 T01211012  RH  040%=      5-min Rain = 0
KCR2 210250Z 18015KT 12/M01 A3006 RMK A01 T01211012  RH  040%=      5-min Rain = 0
KCR2 210251Z 18016G21KT 12/M01 A3006 RMK A01 T01211012  RH  040%=      5-min Rain = 0
KCR2 210252Z 18017KT 12/M01 A3006 RMK A01 T01211011  RH  040%=      5-min Rain = 0
KCR2 210253Z 18016KT 12/M01 A3006 RMK A01 T01221011  RH  040%=      5-min Rain = 0
KCR2 210254Z 18018KT 12/M01 A3006 RMK A01 T01221011  RH  040%=      5-min Rain = 0
KCR2 210255Z 18019KT 12/M01 A3006 RMK A01 T01221012  RH  040%=      5-min Rain = 0
KCR2 210256Z 18017KT 12/M01 A3006 RMK A01 T01231011  RH  039%=      5-min Rain = 0
KCR2 210257Z 18015KT 12/M01 A3006 RMK A01 T01221012  RH  040%=      5-min Rain = 0
KCR2 210258Z 18017KT 12/M01 A3006 RMK A01 T01211011  RH  040%=      5-min Rain = 0
KCR2 210259Z 18017KT 12/M01 A3006 RMK A01 T01211011  RH  040%=      5-min Rain = 0
KCR2 210300Z 18017KT 12/M01 A3006 RMK A01 T01211011  RH  040%=      5-min Rain = 0
KCR2 210301Z 18018KT 12/M01 A3006 RMK A01 T01211011  RH  040%=      5-min Rain = 0
KCR2 210302Z 18019KT 12/M01 A3006 RMK A01 T01211011  RH  040%=      5-min Rain = 0
KCR2 210303Z 18019KT 12/M01 A3006 RMK A01 T01221010  RH  040%=      5-min Rain = 0
KCR2 210304Z 18019KT 12/M01 A3006 RMK A01 T01231010  RH  040%=      5-min Rain = 0
KCR2 210305Z 18017KT 12/M01 A3006 RMK A01 T01221010  RH  040%=      5-min Rain = 0
KCR2 210306Z 18017KT 12/M01 A3006 RMK A01 T01211010  RH  040%=      5-min Rain = 0
KCR2 210307Z 18019KT 12/M01 A3006 RMK A01 T01201010  RH  041%=      5-min Rain = 0
KCR2 210308Z 18018KT 12/M01 A3006 RMK A01 T01211009  RH  041%=      5-min Rain = 0
KCR2 210309Z 18018KT 12/M01 A3006 RMK A01 T01211009  RH  040%=      5-min Rain = 0
KCR2 210310Z 18019KT 12/M01 A3006 RMK A01 T01211009  RH  040%=      5-min Rain = 0
KCR2 210311Z 18017G22KT 12/M01 A3006 RMK A01 T01211009  RH  041%=      5-min Rain = 0
KCR2 210312Z 18018KT 12/M01 A3006 RMK A01 T01211009  RH  041%=      5-min Rain = 0
KCR2 210313Z 18018KT 12/M01 A3006 RMK A01 T01211009  RH  041%=      5-min Rain = 0
KCR2 210314Z 18018KT 12/M01 A3006 RMK A01 T01211008  RH  041%=      5-min Rain = 0
KCR2 210315Z 18016KT 12/M01 A3006 RMK A01 T01201008  RH  041%=      5-min Rain = 0
KCR2 210316Z 18017KT 12/M01 A3006 RMK A01 T01201008  RH  041%=      5-min Rain = 0
KCR2 210317Z 18020G25KT 12/M01 A3006 RMK A01 T01191008  RH  041%=      5-min Rain = 0
KCR2 210318Z 18019KT 12/M01 A3006 RMK A01 T01201008  RH  041%=      5-min Rain = 0
KCR2 210319Z 18019KT 12/M01 A3006 RMK A01 T01201008  RH  041%=      5-min Rain = 0
KCR2 210320Z 19017G22KT 12/M01 A3006 RMK A01 T01201007  RH  041%=      5-min Rain = 0
KCR2 210321Z 18018KT 12/M01 A3006 RMK A01 T01191008  RH  041%=      5-min Rain = 0
KCR2 210322Z 18019KT 12/M01 A3006 RMK A01 T01191007  RH  042%=      5-min Rain = 0
KCR2 210323Z 18018KT 12/M01 A3006 RMK A01 T01191007  RH  042%=      5-min Rain = 0
KCR2 210324Z 18018KT 12/M01 A3006 RMK A01 T01191007  RH  042%=      5-min Rain = 0
KCR2 210325Z 18017KT 12/M01 A3006 RMK A01 T01181007  RH  042%=      5-min Rain = 0
KCR2 210326Z 18018KT 12/M01 A3006 RMK A01 T01181007  RH  042%=      5-min Rain = 0
KCR2 210327Z 18018KT 12/M01 A3006 RMK A01 T01181006  RH  042%=      5-min Rain = 0
KCR2 210328Z 18017KT 12/M01 A3006 RMK A01 T01181007  RH  042%=      5-min Rain = 0
KCR2 210329Z 18017KT 12/M01 A3006 RMK A01 T01181006  RH  042%=      5-min Rain = 0
KCR2 210330Z 18018KT 12/M01 A3006 RMK A01 T01171006  RH  042%=      5-min Rain = 0
KCR2 210331Z 18017KT 12/M01 A3006 RMK A01 T01171006  RH  042%=      5-min Rain = 0
KCR2 210332Z 18018KT 12/M01 A3006 RMK A01 T01171006  RH  042%=      5-min Rain = 0
KCR2 210333Z 18020KT 12/M01 A3006 RMK A01 T01171006  RH  043%=      5-min Rain = 0
KCR2 210334Z 18018G23KT 12/M01 A3006 RMK A01 T01171006  RH  043%=      5-min Rain = 0
KCR2 210335Z 18018G23KT 12/M01 A3006 RMK A01 T01171006  RH  043%=      5-min Rain = 0
KCR2 210336Z 18016KT 12/M01 A3006 RMK A01 T01171006  RH  043%=      5-min Rain = 0
KCR2 210337Z 18019KT 12/M01 A3006 RMK A01 T01161006  RH  043%=      5-min Rain = 0
KCR2 210338Z 18017KT 12/M01 A3006 RMK A01 T01161006  RH  043%=      5-min Rain = 0
KCR2 210339Z 18015KT 12/M01 A3006 RMK A01 T01151006  RH  043%=      5-min Rain = 0
KCR2 210340Z 18018KT 11/M01 A3006 RMK A01 T01141006  RH  043%=      5-min Rain = 0
KCR2 210341Z 18019KT 12/M01 A3005 RMK A01 T01151005  RH  043%=      5-min Rain = 0
KCR2 210342Z 18018KT 12/M01 A3006 RMK A01 T01161005  RH  043%=      5-min Rain = 0
KCR2 210343Z 18016KT 12/M01 A3006 RMK A01 T01151005  RH  043%=      5-min Rain = 0
KCR2 210344Z 18017G23KT 11/M01 A3006 RMK A01 T01141005  RH  044%=      5-min Rain = 0
KCR2 210345Z 18020KT 11/M01 A3005 RMK A01 T01141005  RH  044%=      5-min Rain = 0
KCR2 210346Z 18018G23KT 12/M01 A3005 RMK A01 T01151005  RH  043%=      5-min Rain = 0
KCR2 210347Z 18018KT 12/M01 A3005 RMK A01 T01151005  RH  043%=      5-min Rain = 0
KCR2 210348Z 18016KT 12/M01 A3006 RMK A01 T01151005  RH  043%=      5-min Rain = 0
KCR2 210349Z 18016G21KT 11/M01 A3006 RMK A01 T01141005  RH  044%=      5-min Rain = 0
KCR2 210350Z 18018KT 11/M01 A3005 RMK A01 T01131005  RH  044%=      5-min Rain = 0
KCR2 210351Z 18019G24KT 11/M01 A3005 RMK A01 T01131005  RH  044%=      5-min Rain = 0
KCR2 210352Z 18018G23KT 11/M01 A3005 RMK A01 T01141005  RH  044%=      5-min Rain = 0
KCR2 210353Z 18020KT 11/M01 A3005 RMK A01 T01141005  RH  044%=      5-min Rain = 0
KCR2 210354Z 18017G22KT 11/M01 A3005 RMK A01 T01141005  RH  044%=      5-min Rain = 0
KCR2 210355Z 18017KT 11/M01 A3005 RMK A01 T01131005  RH  044%=      5-min Rain = 0
KCR2 210356Z 18018KT 11/M01 A3005 RMK A01 T01131005  RH  044%=      5-min Rain = 0
KCR2 210357Z 18020KT 11/M01 A3005 RMK A01 T01131005  RH  044%=      5-min Rain = 0
KCR2 210358Z 18016KT 11/M01 A3006 RMK A01 T01131005  RH  044%=      5-min Rain = 0
KCR2 210359Z 18017KT 11/M01 A3005 RMK A01 T01131005  RH  044%=      5-min Rain = 0
KCR2 210400Z 18017KT 11/M01 A3005 RMK A01 T01121005  RH  044%=      5-min Rain = 0
KCR2 210401Z 18021G26KT 11/M01 A3005 RMK A01 T01121005  RH  044%=      5-min Rain = 0
KCR2 210402Z 18019G25KT 11/M01 A3005 RMK A01 T01121005  RH  044%=      5-min Rain = 0
KCR2 210403Z 18019G24KT 11/M01 A3005 RMK A01 T01121005  RH  044%=      5-min Rain = 0
KCR2 210404Z 18022G27KT 11/M01 A3005 RMK A01 T01121005  RH  044%=      5-min Rain = 0
KCR2 210405Z 18020KT 11/M01 A3005 RMK A01 T01121005  RH  044%=      5-min Rain = 0
KCR2 210406Z 18023KT 11/M01 A3005 RMK A01 T01121005  RH  044%=      5-min Rain = 0
KCR2 210407Z 18022G27KT 11/M01 A3005 RMK A01 T01121005  RH  044%=      5-min Rain = 0
KCR2 210408Z 18022KT 11/M01 A3005 RMK A01 T01121005  RH  044%=      5-min Rain = 0
KCR2 210409Z 18020KT 11/M01 A3005 RMK A01 T01121005  RH  044%=      5-min Rain = 0
KCR2 210410Z 18020KT 11/M01 A3005 RMK A01 T01111005  RH  045%=      5-min Rain = 0
KCR2 210411Z 18022KT 11/M01 A3005 RMK A01 T01111005  RH  045%=      5-min Rain = 0
KCR2 210412Z 18021G27KT 11/M01 A3005 RMK A01 T01111005  RH  045%=      5-min Rain = 0
KCR2 210413Z 18021KT 11/M01 A3005 RMK A01 T01111005  RH  045%=      5-min Rain = 0
KCR2 210414Z 18022KT 11/M01 A3005 RMK A01 T01111005  RH  045%=      5-min Rain = 0
KCR2 210415Z 18022KT 11/M01 A3005 RMK A01 T01111005  RH  045%=      5-min Rain = 0
KCR2 210416Z 18019KT 11/M01 A3005 RMK A01 T01111005  RH  045%=      5-min Rain = 0
KCR2 210417Z 18022KT 11/M01 A3005 RMK A01 T01101005  RH  045%=      5-min Rain = 0
KCR2 210418Z 19022G27KT 11/M01 A3005 RMK A01 T01101006  RH  045%=      5-min Rain = 0
KCR2 210419Z 18021KT 11/M01 A3005 RMK A01 T01101005  RH  045%=      5-min Rain = 0
KCR2 210420Z 18023G28KT 11/M01 A3005 RMK A01 T01101005  RH  045%=      5-min Rain = 0
KCR2 210421Z 18020G25KT 11/M01 A3005 RMK A01 T01101006  RH  045%=      5-min Rain = 0
KCR2 210422Z 18021KT 11/M01 A3005 RMK A01 T01101006  RH  045%=      5-min Rain = 0
KCR2 210423Z 18024KT 11/M01 A3005 RMK A01 T01101005  RH  045%=      5-min Rain = 0
KCR2 210424Z 18022KT 11/M01 A3005 RMK A01 T01101006  RH  045%=      5-min Rain = 0
KCR2 210425Z 18020KT 11/M01 A3005 RMK A01 T01101006  RH  045%=      5-min Rain = 0
KCR2 210426Z 18017KT 11/M01 A3005 RMK A01 T01091006  RH  045%=      5-min Rain = 0
KCR2 210427Z 18019KT 11/M01 A3005 RMK A01 T01091006  RH  045%=      5-min Rain = 0
KCR2 210428Z 18019KT 11/M01 A3005 RMK A01 T01081006  RH  045%=      5-min Rain = 0
KCR2 210429Z 18019G24KT 11/M01 A3005 RMK A01 T01081006  RH  045%=      5-min Rain = 0
KCR2 210430Z 19020KT 11/M01 A3005 RMK A01 T01081006  RH  045%=      5-min Rain = 0
KCR2 210431Z 18019KT 11/M01 A3005 RMK A01 T01081006  RH  045%=      5-min Rain = 0
KCR2 210432Z 18020KT 11/M01 A3005 RMK A01 T01081006  RH  045%=      5-min Rain = 0
KCR2 210433Z 18020KT 11/M01 A3005 RMK A01 T01081005  RH  045%=      5-min Rain = 0
KCR2 210434Z 18019KT 11/M01 A3005 RMK A01 T01081006  RH  045%=      5-min Rain = 0
KCR2 210435Z 18017KT 11/M01 A3005 RMK A01 T01071006  RH  046%=      5-min Rain = 0
KCR2 210436Z 18023G28KT 11/M01 A3005 RMK A01 T01071006  RH  046%=      5-min Rain = 0
KCR2 210437Z 18018KT 11/M01 A3005 RMK A01 T01071006  RH  046%=      5-min Rain = 0
KCR2 210438Z 18019KT 11/M01 A3005 RMK A01 T01071006  RH  046%=      5-min Rain = 0
KCR2 210439Z 18020G25KT 11/M01 A3005 RMK A01 T01061006  RH  046%=      5-min Rain = 0
KCR2 210440Z 18019KT 11/M01 A3005 RMK A01 T01061006  RH  046%=      5-min Rain = 0
KCR2 210441Z 18019G24KT 11/M01 A3005 RMK A01 T01061006  RH  046%=      5-min Rain = 0
KCR2 210442Z 18018KT 11/M01 A3005 RMK A01 T01061006  RH  046%=      5-min Rain = 0
KCR2 210443Z 18019KT 11/M01 A3005 RMK A01 T01061006  RH  046%=      5-min Rain = 0
KCR2 210444Z 18020KT 11/M01 A3005 RMK A01 T01061006  RH  046%=      5-min Rain = 0
KCR2 210445Z 18023KT 11/M01 A3005 RMK A01 T01051006  RH  046%=      5-min Rain = 0
KCR2 210446Z 19022KT 11/M01 A3005 RMK A01 T01061006  RH  046%=      5-min Rain = 0
KCR2 210447Z 19021KT 11/M01 A3005 RMK A01 T01061007  RH  046%=      5-min Rain = 0
KCR2 210448Z 18018KT 11/M01 A3005 RMK A01 T01061007  RH  046%=      5-min Rain = 0
KCR2 210449Z 18021G29KT 11/M01 A3005 RMK A01 T01061006  RH  046%=      5-min Rain = 0
KCR2 210450Z 18023KT 11/M01 A3005 RMK A01 T01061007  RH  046%=      5-min Rain = 0
KCR2 210451Z 18020G25KT 11/M01 A3005 RMK A01 T01061007  RH  046%=      5-min Rain = 0
KCR2 210452Z 18016G21KT 11/M01 A3005 RMK A01 T01051007  RH  046%=      5-min Rain = 0
KCR2 210453Z 18019KT 10/M01 A3005 RMK A01 T01041007  RH  046%=      5-min Rain = 0
KCR2 210454Z 18019G24KT 10/M01 A3006 RMK A01 T01041007  RH  046%=      5-min Rain = 0
KCR2 210455Z 18019G24KT 10/M01 A3005 RMK A01 T01041007  RH  046%=      5-min Rain = 0
KCR2 210456Z 18017KT 11/M01 A3005 RMK A01 T01051007  RH  046%=      5-min Rain = 0
KCR2 210457Z 18017KT 10/M01 A3005 RMK A01 T01041007  RH  046%=      5-min Rain = 0
KCR2 210458Z 18018KT 10/M01 A3005 RMK A01 T01041007  RH  046%=      5-min Rain = 0
KCR2 210459Z 18016KT 10/M01 A3005 RMK A01 T01041007  RH  046%=      5-min Rain = 0
KCR2 210500Z 18019G25KT 10/M01 A3005 RMK A01 T01041007  RH  046%=      5-min Rain = 0
KCR2 210501Z 18020KT 10/M01 A3005 RMK A01 T01041008  RH  046%=      5-min Rain = 0
KCR2 210502Z 18020G25KT 10/M01 A3005 RMK A01 T01041008  RH  046%=      5-min Rain = 0
KCR2 210503Z 18018KT 10/M01 A3005 RMK A01 T01041008  RH  046%=      5-min Rain = 0
KCR2 210504Z 19018KT 11/M01 A3005 RMK A01 T01051008  RH  045%=      5-min Rain = 0
KCR2 210505Z 18021KT 11/M01 A3005 RMK A01 T01051008  RH  045%=      5-min Rain = 0
KCR2 210506Z 18020KT 11/M01 A3005 RMK A01 T01051008  RH  045%=      5-min Rain = 0
KCR2 210507Z 18019KT 11/M01 A3005 RMK A01 T01051008  RH  045%=      5-min Rain = 0
KCR2 210508Z 18019KT 11/M01 A3005 RMK A01 T01051009  RH  045%=      5-min Rain = 0
KCR2 210509Z 18019KT 11/M01 A3005 RMK A01 T01051009  RH  045%=      5-min Rain = 0
KCR2 210510Z 18018KT 11/M01 A3005 RMK A01 T01051009  RH  045%=      5-min Rain = 0
KCR2 210511Z 18018KT 11/M01 A3005 RMK A01 T01051009  RH  045%=      5-min Rain = 0
KCR2 210512Z 18019KT 11/M01 A3005 RMK A01 T01051009  RH  045%=      5-min Rain = 0
KCR2 210513Z 18018G25KT 11/M01 A3005 RMK A01 T01051009  RH  045%=      5-min Rain = 0
KCR2 210514Z 18017KT 11/M01 A3005 RMK A01 T01051009  RH  045%=      5-min Rain = 0
KCR2 210515Z 18017KT 10/M01 A3005 RMK A01 T01041009  RH  045%=      5-min Rain = 0
KCR2 210516Z 18017KT 10/M01 A3005 RMK A01 T01041009  RH  045%=      5-min Rain = 0
KCR2 210517Z 18016KT 10/M01 A3005 RMK A01 T01041009  RH  045%=      5-min Rain = 0
KCR2 210518Z 18015KT 10/M01 A3005 RMK A01 T01031010  RH  045%=      5-min Rain = 0
KCR2 210519Z 18018KT 10/M01 A3005 RMK A01 T01031010  RH  045%=      5-min Rain = 0
KCR2 210520Z 18016KT 10/M01 A3005 RMK A01 T01031010  RH  045%=      5-min Rain = 0
KCR2 210521Z 18015KT 10/M01 A3006 RMK A01 T01021010  RH  046%=      5-min Rain = 0
KCR2 210522Z 18017KT 10/M01 A3005 RMK A01 T01021010  RH  046%=      5-min Rain = 0
KCR2 210523Z 18016KT 10/M01 A3005 RMK A01 T01021010  RH  046%=      5-min Rain = 0
KCR2 210524Z 18017KT 10/M01 A3005 RMK A01 T01031010  RH  045%=      5-min Rain = 0
KCR2 210525Z 18019KT 10/M01 A3005 RMK A01 T01031010  RH  045%=      5-min Rain = 0
KCR2 210526Z 18017KT 10/M01 A3005 RMK A01 T01041011  RH  045%=      5-min Rain = 0
KCR2 210527Z 18016KT 10/M01 A3006 RMK A01 T01041011  RH  045%=      5-min Rain = 0
KCR2 210528Z 18018G23KT 10/M01 A3006 RMK A01 T01031011  RH  045%=      5-min Rain = 0
KCR2 210529Z 18016G21KT 10/M01 A3006 RMK A01 T01031010  RH  045%=      5-min Rain = 0
KCR2 210530Z 18015G20KT 10/M01 A3006 RMK A01 T01031010  RH  045%=      5-min Rain = 0
KCR2 210531Z 18015KT 10/M01 A3006 RMK A01 T01031010  RH  045%=      5-min Rain = 0
KCR2 210532Z 18017KT 10/M01 A3006 RMK A01 T01021011  RH  045%=      5-min Rain = 0
KCR2 210533Z 18016KT 10/M01 A3006 RMK A01 T01021011  RH  045%=      5-min Rain = 0
KCR2 210534Z 18016KT 10/M01 A3006 RMK A01 T01031011  RH  045%=      5-min Rain = 0
KCR2 210535Z 18015KT 10/M01 A3006 RMK A01 T01031011  RH  045%=      5-min Rain = 0
KCR2 210536Z 18015KT 10/M01 A3006 RMK A01 T01021011  RH  045%=      5-min Rain = 0
KCR2 210537Z 18014KT 10/M01 A3006 RMK A01 T01021011  RH  045%=      5-min Rain = 0
KCR2 210538Z 18014KT 10/M01 A3006 RMK A01 T01011011  RH  046%=      5-min Rain = 0
KCR2 210539Z 18013KT 10/M01 A3006 RMK A01 T01001011  RH  046%=      5-min Rain = 0
KCR2 210540Z 18014KT 10/M01 A3006 RMK A01 T01001011  RH  046%=      5-min Rain = 0
KCR2 210541Z 18014KT 10/M01 A3006 RMK A01 T01001012  RH  046%=      5-min Rain = 0
KCR2 210542Z 18014KT 10/M01 A3006 RMK A01 T01011011  RH  046%=      5-min Rain = 0
KCR2 210543Z 18014KT 10/M01 A3006 RMK A01 T01011011  RH  046%=      5-min Rain = 0
KCR2 210544Z 18015KT 10/M01 A3006 RMK A01 T01001012  RH  046%=      5-min Rain = 0
KCR2 210545Z 18013KT 10/M01 A3006 RMK A01 T01011011  RH  046%=      5-min Rain = 0
KCR2 210546Z 18014G19KT 10/M01 A3006 RMK A01 T01001012  RH  046%=      5-min Rain = 0
KCR2 210547Z 18016KT 10/M01 A3006 RMK A01 T01001012  RH  046%=      5-min Rain = 0
KCR2 210548Z 18015KT 10/M01 A3006 RMK A01 T01001012  RH  046%=      5-min Rain = 0
KCR2 210549Z 18015KT 10/M01 A3006 RMK A01 T01001012  RH  046%=      5-min Rain = 0
KCR2 210550Z 18013KT 10/M01 A3006 RMK A01 T01001012  RH  046%=      5-min Rain = 0
KCR2 210551Z 18015KT 10/M01 A3006 RMK A01 T00991012  RH  046%=      5-min Rain = 0
KCR2 210552Z 18014KT 10/M01 A3006 RMK A01 T00991012  RH  046%=      5-min Rain = 0
KCR2 210553Z 18014KT 10/M01 A3006 RMK A01 T01001012  RH  046%=      5-min Rain = 0
KCR2 210554Z 18015KT 10/M01 A3006 RMK A01 T00991013  RH  046%=      5-min Rain = 0
KCR2 210555Z 18015KT 10/M01 A3006 RMK A01 T00991013  RH  046%=      5-min Rain = 0
KCR2 210556Z 18015KT 10/M01 A3006 RMK A01 T00991013  RH  046%=      5-min Rain = 0
KCR2 210557Z 18014KT 10/M01 A3006 RMK A01 T00991013  RH  046%=      5-min Rain = 0
KCR2 210558Z 18015KT 10/M01 A3006 RMK A01 T00991013  RH  046%=      5-min Rain = 0
KCR2 210559Z 18016KT 10/M01 A3006 RMK A01 T00991013  RH  046%=      5-min Rain = 0

Page generated in 0.0322 seconds.